GFSGL_sfc_30mbdewp_000.txt.gz
Dewpoint
68 69 69 69 70 71 71 73 71 69 67 65 64 60 60 60 60 60 59 56 56 56 55 57 59 60 57 52 52 52 52 52 51 50 50 51 54 56 56 57 57 56 55
68 70 69 69 69 70 72 72 70 68 66 65 63 63 61 59 59 60 59 55 55 55 56 58 59 57 57 57 56 55 54 54 54 53 54 53 54 53 55 57 57 54 54
66 68 68 68 69 69 72 70 69 65 65 64 63 64 64 63 60 60 60 59 57 56 57 58 58 57 57 56 56 53 52 52 53 52 53 53 52 52 52 56 55 53 53
64 67 68 68 69 70 70 66 64 62 63 62 63 63 63 62 61 61 60 59 57 56 58 59 59 59 57 57 56 57 57 56 54 52 53 50 51 52 52 52 50 48 47
64 65 67 69 70 69 67 64 62 62 63 59 59 59 61 63 62 61 59 57 57 58 59 60 60 61 59 59 55 54 55 54 52 51 51 49 49 51 51 50 49 50 51
66 67 67 71 70 68 67 65 64 63 60 59 59 60 60 61 59 58 58 58 58 60 60 61 62 61 62 62 60 59 58 56 54 52 51 50 53 56 53 51 51 51 50
67 68 69 71 69 67 66 65 63 61 60 58 59 60 60 61 60 59 59 58 58 60 62 61 60 60 60 60 60 59 57 57 57 57 57 55 56 54 54 56 54 53 51
68 69 70 70 68 68 66 66 63 60 59 61 62 61 60 60 62 61 60 61 61 63 62 61 61 61 61 61 59 57 56 57 57 58 56 55 55 55 54 53 53 53 54
68 68 69 69 67 67 66 65 64 62 61 62 63 62 62 61 62 61 61 58 60 61 63 60 60 61 61 57 56 56 56 56 55 55 53 52 52 52 53 52 50 50 50
68 68 69 68 67 67 66 66 65 64 63 61 62 62 61 63 61 60 59 57 59 60 61 61 60 60 55 54 55 55 54 53 53 52 52 52 52 52 53 53 52 51 49
68 69 68 68 68 68 67 66 65 64 63 63 62 63 63 62 61 60 59 60 58 59 59 60 59 53 52 52 52 53 53 53 50 50 48 44 43 45 45 46 47 46 42
68 68 68 68 68 67 67 66 65 64 64 62 63 63 62 62 62 60 58 58 59 58 60 56 55 49 48 50 51 50 49 47 47 47 45 40 42 42 42 42 45 45 42
69 68 68 68 67 67 66 65 64 63 62 62 62 61 58 60 61 57 57 57 58 59 56 51 47 46 46 46 48 49 47 48 47 45 40 40 41 41 42 42 39 41 45
69 69 68 68 67 66 66 65 64 63 62 62 61 59 57 59 58 58 57 55 53 53 50 50 50 49 49 49 49 48 48 47 45 42 41 41 40 39 37 33 29 32 44
68 67 67 66 66 66 63 58 62 60 59 57 57 57 56 57 56 56 55 54 53 51 53 51 50 49 48 48 48 47 46 44 42 41 40 39 36 33 30 29 29 38 45
65 65 64 64 65 64 62 59 49 52 53 54 53 57 57 54 53 51 48 47 46 45 47 46 46 46 46 45 44 42 41 40 39 38 37 35 33 30 29 29 30 39 45
63 63 62 61 59 59 59 57 55 50 46 47 48 49 51 50 47 45 42 42 42 43 44 44 44 44 43 42 40 38 37 36 39 36 34 32 30 29 28 28 30 37 42
62 61 59 58 57 56 56 57 55 55 53 51 45 46 43 43 42 42 42 44 44 44 44 43 43 42 40 39 38 37 35 34 32 30 30 29 28 28 27 28 30 35 40
57 57 56 54 54 54 55 54 54 54 52 52 47 44 42 40 41 41 42 46 45 43 41 40 40 38 38 39 39 37 35 29 25 29 29 27 27 26 26 27 28 32 39
55 55 54 54 57 56 56 55 54 53 52 53 50 49 47 45 47 47 47 46 44 41 40 39 39 39 39 40 36 32 27 25 28 27 27 27 26 26 25 26 26 28 37
54 57 55 55 54 53 52 50 49 49 50 49 49 50 49 49 47 47 47 46 43 42 42 41 40 40 39 35 30 25 22 25 26 26 26 25 26 25 25 25 24 25 29
54 52 51 50 51 51 51 52 51 50 49 48 48 51 50 50 48 48 47 45 44 43 42 42 38 35 30 27 23 21 23 24 26 26 25 25 24 24 24 24 22 23 25
52 52 52 52 51 54 53 51 51 50 49 50 51 51 50 49 48 48 47 45 43 42 41 39 36 31 27 20 17 21 22 24 25 26 26 26 24 24 24 23 22 22 23
51 51 50 49 49 48 47 48 49 51 50 51 51 50 49 47 48 48 46 44 43 42 41 37 34 30 26 17 16 19 21 23 26 26 29 27 25 26 26 23 22 23 23
48 48 48 48 48 46 47 47 46 46 46 46 45 45 46 47 48 47 46 44 43 42 40 36 34 30 25 20 13 16 22 17 25 27 27 28 26 28 25 22 23 21 23
44 43 43 43 43 43 43 42 42 42 40 40 41 41 41 42 44 47 45 42 42 41 39 37 34 30 25 21 21 19 12 12 23 27 27 26 25 25 23 22 22 20 22

GFSGL_sfc_30mbdewp_003.txt.gz
Dewpoint
71 70 71 71 72 72 71 70 70 68 69 66 68 66 63 62 62 62 61 59 61 60 60 56 57 60 56 53 51 51 50 50 50 51 52 53 58 58 57 58 57 57 55
70 71 71 71 71 71 72 71 72 71 70 68 68 66 61 62 62 62 60 58 57 57 56 58 58 57 61 62 56 58 57 55 54 55 55 55 56 58 58 58 56 53 53
68 69 70 70 71 71 72 72 73 72 70 67 67 65 62 61 62 62 61 60 58 56 56 58 58 59 60 58 60 57 55 57 55 52 52 53 53 55 55 56 59 57 57
64 65 69 71 71 70 72 73 72 72 69 65 65 64 63 62 61 61 60 60 60 59 58 59 59 60 61 61 61 61 60 59 56 53 52 53 53 53 53 50 52 54 53
64 65 68 72 71 71 72 73 72 70 68 64 63 62 61 60 61 61 60 60 61 60 58 58 60 62 62 62 61 59 60 57 55 53 52 51 53 50 53 53 53 52 53
66 66 69 72 72 72 73 72 70 69 66 62 60 59 60 58 56 60 61 59 60 59 59 60 63 63 59 61 62 61 61 59 57 55 54 52 55 56 56 57 55 50 48
68 69 71 73 73 72 72 71 69 68 65 62 60 61 60 60 59 60 59 59 59 59 61 62 62 59 60 60 62 61 61 61 59 57 57 58 58 57 57 56 54 53 51
70 70 72 74 73 71 70 69 68 68 66 63 61 60 59 60 60 59 59 60 59 58 59 61 61 61 62 61 60 61 62 61 60 59 59 60 57 55 55 54 54 54 52
69 71 72 73 72 70 69 68 68 68 67 64 62 62 62 62 60 60 61 61 61 60 61 61 63 62 61 60 59 59 59 59 58 57 55 54 52 52 52 52 49 46 45
69 71 72 73 71 69 68 68 68 68 66 63 61 64 64 64 61 60 61 62 59 57 61 63 62 60 60 58 59 58 57 56 54 53 55 53 53 55 53 54 51 50 46
68 69 71 71 70 68 68 69 68 67 66 64 63 64 64 64 63 60 60 61 56 56 58 60 58 58 55 53 53 56 56 55 56 51 49 48 48 46 42 46 49 44 42
69 69 69 69 69 69 69 68 67 66 65 64 65 64 64 64 62 59 59 58 59 58 57 55 61 54 52 52 52 51 50 50 49 47 47 47 45 41 40 43 47 47 44
70 69 69 69 69 69 68 67 66 65 63 63 62 61 61 62 65 59 59 59 58 59 62 56 54 50 48 48 47 49 49 48 47 48 47 43 39 40 45 43 43 41 39
70 69 69 69 68 68 68 66 65 63 62 61 61 63 63 62 64 63 60 59 58 58 53 54 52 52 50 50 50 49 49 48 48 46 42 41 39 38 37 34 30 28 28
69 69 70 68 67 67 64 62 64 64 61 61 60 62 61 57 58 59 58 58 56 55 55 53 52 51 50 51 50 50 50 47 44 42 40 38 36 35 33 30 28 29 31
68 68 67 66 67 66 62 58 52 52 53 53 53 56 56 53 51 51 51 51 51 51 52 49 47 46 46 45 46 46 44 42 41 40 38 36 34 33 30 29 29 30 32
67 67 66 64 64 63 62 60 59 52 48 48 49 51 54 52 49 49 48 47 45 46 47 44 44 45 44 44 42 41 39 39 41 36 34 33 32 29 28 28 28 30 33
63 62 61 60 58 58 57 56 54 54 54 53 47 49 47 48 47 45 44 46 45 44 45 43 44 43 42 41 39 38 38 35 33 31 30 30 29 27 27 27 28 29 30
61 58 58 56 55 54 54 53 52 51 51 53 49 47 44 42 43 43 43 48 45 45 44 43 42 41 40 39 39 39 38 34 29 28 31 29 27 27 26 26 26 27 28
57 56 55 54 54 53 53 51 50 49 48 54 52 50 47 46 47 48 48 48 47 45 43 43 42 42 42 41 40 37 33 27 26 29 27 27 27 26 25 25 25 25 25
53 54 54 54 52 52 51 49 47 46 45 45 50 51 48 49 49 49 48 48 47 45 44 44 43 43 42 41 38 32 26 23 25 26 26 26 26 25 26 25 24 23 23
53 53 52 51 50 49 49 48 47 46 45 45 51 50 49 50 48 49 49 50 47 46 45 45 44 41 39 34 30 27 21 22 24 26 26 26 26 25 25 25 24 22 22
52 50 50 49 49 51 50 49 48 47 46 49 52 51 51 50 49 49 50 49 48 46 45 43 41 39 34 30 24 20 20 22 25 25 27 27 26 26 26 26 23 22 22
51 49 50 50 50 49 47 46 46 48 47 48 49 51 52 50 50 50 50 49 47 45 44 42 40 36 32 29 19 17 18 22 25 24 29 27 27 27 29 26 23 23 22
51 51 50 49 49 47 44 44 44 44 46 46 49 48 49 49 48 48 48 48 46 45 43 42 38 35 34 29 20 19 19 15 19 23 23 28 29 29 27 24 23 22 22
52 48 46 45 44 44 43 42 42 42 44 44 40 40 44 45 45 45 47 47 47 44 43 40 38 36 33 27 23 19 15 12 20 25 26 25 28 27 26 23 23 21 21

GFSGL_sfc_30mbdewp_006.txt.gz
Dewpoint
74 74 74 74 74 73 74 73 70 71 68 69 68 69 69 67 67 66 63 63 63 62 61 61 60 62 60 59 61 58 55 54 54 55 55 57 57 58 59 59 60 60 60
73 73 74 74 74 74 73 73 72 72 70 68 69 69 69 66 67 66 64 60 64 64 64 63 60 61 61 61 62 60 60 59 58 56 58 58 58 60 60 60 60 58 56
72 72 73 73 74 74 74 72 73 72 71 71 70 69 67 65 66 65 65 63 63 61 61 61 61 61 61 62 61 61 60 60 59 58 57 58 57 57 56 58 58 61 60
70 71 71 72 72 72 73 73 72 73 72 71 70 69 67 65 65 65 65 64 63 62 62 62 61 61 61 62 60 61 62 61 60 60 60 58 57 56 59 57 55 57 58
68 70 71 72 72 72 73 73 73 73 73 73 70 69 67 64 64 64 64 64 63 63 63 62 62 62 62 64 63 62 62 61 59 58 57 57 55 55 55 56 57 57 56
64 67 69 71 73 72 72 73 73 74 73 72 69 67 65 63 62 62 65 64 64 63 62 62 63 63 62 62 61 61 62 59 58 58 58 57 56 57 58 57 57 55 54
65 67 68 71 73 73 73 73 74 74 73 70 67 65 64 63 59 60 63 63 62 62 63 62 61 62 62 62 61 61 61 60 59 57 57 58 58 58 58 57 57 56 55
68 68 69 72 73 73 73 73 74 73 71 70 67 64 62 63 60 60 60 62 62 62 62 61 61 62 63 63 62 63 61 62 62 62 61 59 61 61 58 56 54 54 54
66 70 71 74 74 74 73 73 73 71 70 69 67 63 63 63 60 59 59 60 61 61 61 61 62 64 64 61 60 60 59 61 61 60 60 60 59 53 53 54 52 51 49
69 71 73 75 74 73 72 71 70 70 70 70 67 65 64 64 61 59 60 60 60 62 61 62 61 62 63 60 60 61 60 60 60 59 58 55 54 54 53 54 53 51 51
71 72 75 75 74 72 71 70 69 69 70 68 64 64 64 65 65 59 59 62 61 61 60 61 62 61 59 58 57 58 58 53 55 55 54 52 52 53 55 55 57 55 47
73 73 75 73 71 70 70 70 70 69 67 66 64 64 66 66 65 61 59 60 63 61 60 61 60 57 56 55 53 52 51 51 52 52 51 50 51 48 46 47 47 47 48
72 73 73 71 69 69 70 68 67 68 66 65 65 66 65 65 64 61 59 58 58 59 62 58 56 54 53 51 50 50 49 50 50 49 49 50 45 46 46 45 46 44 42
72 71 70 69 70 71 70 69 67 66 65 64 65 64 63 64 65 63 60 59 58 59 54 55 54 53 52 53 52 50 50 51 51 50 48 47 47 43 41 42 39 37 34
70 69 69 69 69 69 62 62 65 60 61 64 63 63 63 63 64 64 62 61 60 59 58 57 54 54 54 53 52 53 53 52 52 51 46 45 41 41 39 38 36 34 36
69 68 69 68 68 64 60 57 51 53 52 53 53 60 55 55 60 59 56 54 53 55 55 56 54 52 53 51 53 52 52 52 50 45 43 41 40 38 37 35 35 37 36
69 70 68 68 67 64 63 60 56 50 48 50 51 53 55 51 51 50 49 49 50 51 53 52 49 49 48 48 46 45 43 44 44 41 40 39 37 36 34 34 34 35 36
68 67 66 66 66 66 64 63 61 57 54 53 48 49 47 47 46 47 48 49 49 48 49 48 47 47 46 45 44 42 42 42 39 38 35 33 35 35 33 33 33 32 33
66 66 64 64 65 64 63 61 59 58 57 52 49 47 45 44 44 44 45 51 49 48 48 48 45 44 44 43 43 43 42 40 34 32 33 36 35 31 31 31 31 30 30
63 60 60 58 58 58 57 54 53 56 55 52 51 50 47 47 48 49 49 50 50 48 48 46 45 45 45 45 45 43 40 36 33 35 36 32 32 32 30 30 30 30 31
57 57 55 56 55 54 53 51 50 49 53 54 53 51 49 50 50 51 51 51 50 49 49 46 47 46 46 45 44 40 35 30 28 30 29 30 31 30 31 30 29 29 28
54 55 54 54 53 53 51 49 47 46 49 52 52 49 48 51 50 52 51 50 50 50 48 48 47 46 44 41 37 34 30 25 27 29 30 29 30 30 31 29 31 28 27
53 51 54 51 51 51 50 50 48 47 48 50 51 49 49 51 52 51 51 52 50 48 48 46 45 44 42 37 32 27 24 24 30 29 29 30 30 30 30 32 30 27 26
54 52 51 53 52 51 50 51 48 46 47 48 51 52 52 51 50 51 51 51 50 49 48 46 44 42 40 34 31 24 26 32 29 28 32 30 29 32 32 32 28 26 27
55 56 53 53 52 50 48 47 46 45 46 46 47 48 50 50 50 50 50 50 49 48 47 45 44 41 38 36 32 22 16 16 22 18 22 28 30 32 33 27 28 26 26
55 53 52 52 50 50 50 48 44 46 47 46 45 45 48 49 48 49 49 48 48 48 46 45 44 41 38 35 30 20 17 18 24 21 25 26 27 33 31 28 28 26 25

GFSGL_sfc_30mbdewp_009.txt.gz
Dewpoint
74 74 73 73 72 71 72 71 70 69 69 69 69 71 69 67 66 66 63 62 64 60 61 59 61 62 60 58 61 59 57 58 54 56 56 57 56 55 56 58 59 60 60
73 74 74 74 74 72 71 72 72 69 69 70 70 68 69 67 67 66 63 63 61 62 60 60 59 59 61 60 61 60 60 61 59 56 58 58 58 58 57 59 59 61 59
74 73 74 73 74 73 72 73 73 70 70 69 68 68 68 68 66 66 64 62 63 63 62 62 61 60 60 61 61 61 61 60 60 58 57 59 59 59 58 57 58 58 59
73 73 73 73 73 73 73 72 73 73 71 69 68 68 69 67 66 66 65 63 63 64 63 63 62 60 60 62 61 60 60 60 60 59 57 58 59 58 58 58 55 57 57
72 72 72 73 73 73 73 73 72 73 72 71 70 70 69 67 66 65 65 64 63 63 63 63 63 63 63 62 61 61 61 58 59 58 57 57 56 56 54 56 57 57 57
70 71 71 72 72 73 73 73 73 72 73 72 71 69 69 66 65 65 65 64 64 64 63 63 61 61 63 62 62 62 62 60 59 58 57 56 56 57 57 57 57 56 54
68 70 70 70 72 72 73 72 73 73 74 73 71 69 68 66 63 64 65 64 63 63 63 63 62 63 63 62 61 60 60 61 61 58 56 55 56 57 58 57 56 56 56
66 69 69 71 71 72 72 72 73 73 73 72 70 68 67 65 62 61 62 64 64 64 64 64 62 60 62 62 62 61 62 62 61 61 60 59 59 59 60 58 56 54 54
64 65 68 69 71 72 72 72 74 73 72 70 69 67 65 64 62 60 60 63 62 62 63 63 62 60 61 62 61 60 59 59 61 62 62 62 61 60 59 55 52 51 50
62 65 68 69 71 73 72 73 73 72 71 70 68 66 65 64 62 60 60 60 60 60 61 62 61 61 62 61 60 59 58 59 58 56 57 57 55 54 54 53 52 51 51
62 70 71 73 74 73 73 71 71 70 70 69 69 65 64 64 62 60 59 60 59 60 60 60 61 60 60 60 60 59 59 54 52 51 52 52 52 52 54 54 56 54 51
71 75 75 74 73 71 70 70 69 69 68 67 66 64 64 64 63 59 59 60 62 61 61 61 59 60 59 58 56 53 52 51 51 50 50 50 50 46 47 46 47 50 51
75 74 72 71 71 70 69 69 68 67 66 65 64 64 65 66 65 63 60 58 59 61 61 61 58 57 57 54 53 52 51 49 49 49 49 50 47 47 44 42 41 39 38
73 71 70 69 69 69 68 68 67 67 66 65 64 64 65 65 63 61 59 57 58 59 57 57 56 55 54 52 52 51 50 50 50 50 50 49 48 41 40 41 38 35 33
71 70 69 69 69 64 58 61 64 59 64 65 66 65 63 64 64 63 61 60 59 60 56 54 53 52 52 52 52 52 51 51 52 52 51 44 39 39 39 38 36 33 33
69 69 69 68 63 60 58 55 49 51 53 57 60 62 58 60 64 63 62 61 60 58 57 56 54 54 54 54 53 52 53 53 52 46 41 40 38 39 35 36 36 34 35
68 68 68 65 63 61 59 59 57 50 50 51 54 56 56 54 59 58 54 53 55 56 56 56 54 52 51 51 52 52 49 49 46 43 41 38 34 33 35 35 33 34 33
69 68 67 66 64 62 61 59 57 55 54 52 47 49 50 52 52 51 50 51 51 51 52 51 49 50 48 45 43 43 42 40 38 33 31 30 29 34 34 31 31 32 31
68 67 67 67 66 64 63 62 58 56 54 51 49 48 45 46 47 47 48 53 51 49 48 47 48 46 45 45 45 44 41 38 34 32 29 33 36 34 31 29 30 32 31
67 66 66 67 66 65 64 64 61 59 53 51 51 50 47 46 48 48 49 50 50 49 51 50 48 46 45 45 44 42 40 37 35 34 35 35 33 32 28 30 32 30 30
62 60 61 64 63 63 61 60 60 58 54 53 52 50 48 49 49 49 48 50 49 51 49 48 47 46 46 45 44 41 37 34 30 31 32 30 30 30 31 33 29 30 32
61 58 59 58 58 56 54 53 54 56 55 53 53 50 48 51 51 51 51 51 52 50 49 48 48 47 45 45 43 37 32 28 26 32 30 30 30 30 33 29 31 32 31
58 57 56 56 54 53 51 50 51 55 54 54 52 49 48 50 53 53 52 52 50 48 48 48 47 44 43 36 32 28 24 25 32 32 31 31 30 29 32 33 31 32 27
56 57 55 54 53 52 51 51 51 52 52 51 50 49 49 51 51 51 52 51 50 49 49 47 45 40 34 32 30 29 32 30 30 27 25 23 23 28 31 32 33 28 27
57 57 57 55 54 52 50 50 49 50 50 53 52 51 52 52 51 51 52 51 50 49 47 46 44 43 39 28 21 18 21 19 16 19 25 28 27 27 29 32 27 27 29
55 55 53 53 53 52 50 49 46 49 47 48 51 52 53 52 51 51 51 50 50 49 48 47 45 42 39 30 23 18 19 21 21 21 21 22 24 27 32 32 28 29 29

GFSGL_sfc_30mbdewp_012.txt.gz
Dewpoint
71 71 71 71 70 71 70 70 71 69 68 69 69 69 67 66 65 64 64 63 61 62 63 61 61 60 59 60 59 59 58 57 53 54 57 56 58 56 56 57 59 59 60
71 71 71 72 71 70 70 70 71 70 68 69 69 69 69 67 64 65 63 62 62 61 61 61 60 60 62 61 59 60 60 59 56 54 57 57 57 58 58 59 59 60 60
71 71 72 72 72 71 70 70 71 70 69 69 68 69 69 68 66 65 64 62 61 62 62 60 60 60 58 59 60 60 60 60 59 57 56 58 58 59 57 58 58 58 58
71 71 72 72 72 72 71 70 70 71 69 69 69 68 69 68 67 66 65 63 63 62 62 62 61 60 60 60 61 61 61 60 60 59 58 58 58 58 58 57 56 56 56
71 71 72 72 73 73 72 72 71 72 70 69 68 68 68 68 67 66 65 64 62 62 63 63 63 63 63 61 61 61 60 60 60 59 58 57 56 56 55 56 56 57 57
71 71 72 72 73 73 73 73 71 72 72 70 68 67 68 68 67 66 66 65 63 62 61 62 63 63 63 62 62 62 61 60 59 58 56 56 55 56 56 56 56 56 54
71 71 72 72 72 72 73 73 73 71 72 71 69 69 68 68 67 65 66 65 64 63 62 62 62 63 63 62 62 63 62 62 61 59 57 57 56 56 56 56 56 56 55
70 71 72 72 72 72 73 73 73 73 72 72 71 69 69 68 66 64 65 65 64 63 63 63 63 63 63 62 61 61 61 61 61 61 60 59 58 59 58 58 58 56 54
68 69 71 72 71 72 72 72 73 73 73 72 71 70 69 69 64 63 65 65 64 63 64 64 64 63 62 62 61 59 59 60 61 61 61 61 61 61 60 59 57 54 52
65 67 70 71 71 71 72 72 73 73 73 72 70 70 68 67 63 62 63 62 62 63 63 63 63 62 62 60 59 58 57 58 58 56 55 54 56 56 55 56 55 52 51
65 66 68 70 70 71 72 73 73 73 72 71 69 67 66 66 65 64 59 60 60 61 61 61 61 61 60 60 61 60 59 58 56 52 51 51 52 51 51 53 54 53 50
63 64 66 69 70 73 73 73 72 71 70 69 67 66 66 65 64 61 59 60 60 59 60 60 60 60 59 60 60 59 57 53 51 50 49 49 49 47 46 45 45 48 52
62 65 68 70 72 73 72 71 70 69 68 67 66 65 64 64 63 60 59 58 61 61 61 61 58 58 59 58 57 54 52 50 49 48 48 49 49 47 43 41 41 39 37
69 72 72 71 71 71 70 70 68 67 66 65 65 64 64 63 63 61 58 57 58 60 60 58 57 57 56 54 53 52 51 50 49 49 49 50 49 41 39 40 36 36 33
71 71 70 69 69 65 60 65 67 65 66 65 64 64 63 64 63 62 61 60 59 58 56 55 55 54 53 52 52 52 51 50 50 51 51 50 40 39 39 38 37 35 33
69 69 68 63 61 60 59 58 50 56 62 64 64 64 61 64 63 60 59 59 58 56 56 54 53 52 52 52 51 52 52 52 51 51 47 41 38 38 36 35 36 34 32
69 68 65 63 63 63 62 61 57 51 51 57 61 61 61 62 61 60 58 58 57 57 56 55 54 53 53 54 53 53 52 52 50 43 40 37 34 33 33 34 32 32 30
67 65 64 63 62 61 61 58 56 56 57 55 49 52 53 57 59 58 55 56 56 56 56 56 55 53 51 49 49 46 45 40 36 33 32 31 30 32 34 30 30 30 31
67 66 64 63 62 62 60 58 57 56 54 52 50 48 48 51 52 50 53 54 53 54 53 52 50 49 48 45 44 43 40 39 36 33 30 30 34 35 31 30 30 31 32
67 66 66 64 63 63 61 59 58 55 53 52 52 51 48 50 52 52 52 53 52 51 50 49 48 47 45 44 43 41 39 36 35 33 32 33 34 33 29 30 31 31 30
64 65 66 65 64 64 64 61 60 58 56 53 52 50 50 52 51 51 51 50 50 49 50 48 48 45 45 44 43 41 39 36 32 30 31 34 31 29 30 32 30 31 32
61 61 60 62 63 63 63 62 61 58 56 53 52 49 48 51 51 50 50 50 50 50 50 47 46 46 46 45 43 40 37 33 29 29 32 30 30 30 31 32 32 32 31
60 60 59 60 60 59 58 57 60 58 56 54 52 49 49 50 50 50 50 50 51 51 50 49 48 46 46 46 43 36 30 27 31 32 30 31 29 28 29 31 31 32 28
59 57 56 56 55 56 55 55 56 56 55 54 51 49 49 50 52 52 52 52 51 49 49 49 47 43 39 35 31 26 27 32 33 32 30 27 19 21 27 29 30 30 28
57 57 57 56 55 54 54 53 53 53 53 52 51 50 49 50 52 52 52 51 50 49 49 47 43 38 33 29 27 28 30 29 24 20 19 21 23 24 25 30 33 29 29
56 56 56 55 54 52 51 50 49 51 52 52 51 51 50 51 52 52 52 51 50 49 46 46 43 37 30 27 24 25 23 19 19 21 22 21 20 21 28 31 34 30 26

GFSGL_sfc_30mbdewp_018.txt.gz
Dewpoint
68 69 68 69 69 69 69 68 68 69 69 70 70 70 70 68 67 65 64 63 62 62 62 61 61 61 59 59 60 59 58 55 54 55 55 58 57 58 59 59 60 60 60
66 68 69 69 69 69 69 69 69 69 70 70 70 70 70 68 67 66 65 63 62 62 62 62 60 60 60 60 59 59 58 58 57 55 57 58 58 59 59 59 59 59 60
65 67 68 68 69 69 69 69 69 69 69 69 70 70 69 69 67 66 65 64 63 62 62 62 62 61 60 61 60 60 60 60 59 57 56 59 59 60 59 59 59 59 58
64 65 66 68 68 69 69 69 69 70 69 69 69 70 70 69 67 67 66 65 64 63 63 62 62 62 61 60 60 60 61 60 60 59 59 59 60 59 59 57 56 58 57
65 65 66 67 68 68 70 69 69 70 70 69 69 69 70 69 68 67 66 65 64 64 64 63 62 62 62 61 60 60 60 59 60 60 60 60 58 58 56 57 56 57 57
65 65 66 67 68 68 69 69 70 70 70 69 69 69 69 69 68 67 66 66 65 64 63 63 64 64 63 61 60 60 61 60 60 60 60 59 59 57 57 56 56 55 55
65 66 67 68 69 69 69 69 69 69 70 69 69 69 69 69 68 67 66 67 66 65 65 64 64 64 63 63 62 62 61 61 61 60 60 59 58 57 57 56 56 57 57
65 66 67 68 69 69 70 70 69 69 69 69 69 69 69 69 67 66 66 68 67 66 65 65 65 64 64 63 63 63 63 63 63 63 62 61 60 60 59 59 59 58 57
66 67 68 69 69 70 70 70 70 70 70 70 70 69 69 69 67 65 66 67 66 65 66 65 65 64 63 62 63 62 61 61 61 61 61 61 60 60 61 59 57 56 54
67 67 68 69 69 69 70 71 71 71 70 71 70 69 69 69 66 64 66 67 65 65 65 66 64 64 62 62 62 62 60 59 60 59 57 54 53 53 56 58 55 53 52
66 68 69 70 70 70 71 71 71 71 71 71 70 70 70 69 66 64 64 66 66 65 65 64 64 62 62 61 63 62 61 60 58 58 55 51 51 52 52 54 55 52 50
66 68 69 70 70 70 71 71 72 72 71 71 70 70 71 70 67 62 64 67 66 65 64 64 64 62 61 60 60 61 58 58 56 54 50 48 50 48 48 48 48 51 53
64 66 69 69 70 71 71 71 71 72 71 71 70 70 69 65 64 63 63 64 64 64 64 63 61 59 58 57 58 58 57 56 53 51 48 48 50 50 49 45 45 43 42
62 63 66 69 70 71 72 72 71 71 71 70 70 69 67 65 64 61 62 62 61 61 59 58 57 58 59 58 57 56 56 54 52 50 49 49 51 50 46 43 41 39 36
67 63 63 66 68 71 71 71 71 72 72 71 70 68 65 64 63 62 61 61 61 59 58 58 58 57 56 56 55 54 53 52 51 50 50 50 50 47 44 42 40 38 36
59 65 65 66 68 70 65 63 62 69 69 68 67 66 65 63 62 62 62 60 58 57 59 58 57 57 56 55 54 53 52 51 51 51 51 51 50 47 42 39 38 37 35
60 66 67 67 68 64 65 65 62 57 59 62 64 64 63 61 60 60 57 58 57 58 59 58 58 57 56 54 53 52 52 52 52 51 51 50 47 42 39 37 37 35 33
61 62 66 66 65 66 65 65 63 63 61 61 59 58 59 58 56 54 54 55 55 59 59 58 58 56 55 54 52 52 52 52 52 52 50 47 41 37 34 36 35 34 33
61 63 63 63 63 66 65 64 63 62 61 60 53 53 49 50 51 52 55 59 58 58 58 58 57 56 54 53 53 53 52 50 49 47 43 37 35 35 37 35 33 32 34
60 59 62 61 60 58 60 61 61 60 58 56 58 53 49 53 54 54 60 60 59 59 57 56 55 54 54 53 52 50 48 44 42 39 38 36 36 37 35 33 32 33 33
63 62 62 62 60 59 59 59 59 59 58 59 59 55 57 60 58 58 58 58 57 57 56 55 54 54 53 51 49 47 45 42 40 39 38 36 35 34 36 33 33 33 33
63 63 62 61 60 60 59 58 58 59 59 57 54 52 56 61 60 59 58 57 56 56 56 55 53 51 49 48 47 45 43 42 41 39 37 35 35 35 33 33 33 33 33
60 61 61 61 61 60 59 59 58 58 57 55 53 54 55 57 57 57 56 56 54 54 53 52 50 49 48 48 46 45 42 41 41 39 35 34 34 33 33 32 32 32 32
59 58 59 60 60 60 60 59 58 57 56 55 53 53 55 55 55 55 55 54 53 52 51 50 49 49 48 47 46 45 44 43 41 37 35 34 33 32 32 30 29 31 32
57 57 56 57 57 57 58 59 59 58 57 56 54 53 52 53 52 53 53 52 52 51 51 51 50 49 48 47 46 44 41 38 37 34 35 35 33 32 26 25 26 31 32
53 55 55 54 53 52 53 54 55 56 56 55 54 54 54 53 53 52 52 51 51 51 51 50 50 48 47 46 45 42 36 30 31 32 34 31 28 25 25 25 30 34 33

GFSGL_sfc_30mbdewp_021.txt.gz
Dewpoint
69 69 69 70 70 70 70 70 70 70 71 70 71 71 71 71 71 71 70 68 66 65 64 64 64 64 61 61 61 60 60 58 54 55 57 59 61 60 58 61 60 60 58
68 69 69 70 70 70 70 70 71 71 71 72 71 71 71 71 71 71 70 68 67 66 65 64 63 63 63 62 61 61 59 60 57 58 58 59 61 62 62 63 61 57 59
67 68 69 70 70 70 70 70 71 71 71 70 71 71 71 71 71 71 70 69 68 67 66 64 63 63 63 60 61 60 59 61 61 58 57 59 60 60 61 62 62 60 59
65 67 68 69 70 70 71 71 71 71 71 71 72 71 71 71 71 70 70 70 69 68 67 65 64 63 62 63 63 63 61 61 61 60 58 58 60 60 61 58 57 58 57
66 66 68 69 70 70 71 71 71 71 71 71 71 71 71 70 70 70 70 70 69 68 67 66 65 65 64 64 62 63 62 62 60 59 58 58 57 58 58 56 57 56 57
66 66 67 69 70 70 71 71 71 71 71 71 71 71 71 70 69 69 70 70 69 69 68 67 66 65 63 63 63 63 63 62 61 59 58 57 59 61 59 58 56 55 53
65 66 67 68 69 70 71 71 71 71 71 71 71 71 71 71 68 68 68 69 69 69 68 68 67 66 64 64 62 61 61 62 62 63 61 60 59 61 61 60 59 57 56
66 67 68 68 69 70 70 70 71 71 71 71 71 71 71 71 68 67 67 69 69 69 69 68 67 66 66 65 65 63 63 63 63 62 63 63 62 63 62 61 61 60 59
66 67 68 69 69 70 70 70 70 71 71 71 71 71 71 71 68 66 66 68 69 69 69 69 68 67 67 64 65 64 64 64 65 64 64 63 61 61 61 60 58 57 53
66 67 68 69 69 69 70 71 71 71 71 70 71 71 71 71 68 66 66 68 68 69 69 69 66 68 65 63 64 65 63 63 63 62 61 59 59 58 60 60 54 50 47
65 67 69 70 70 70 71 72 71 71 71 71 71 71 71 71 71 65 64 69 68 68 67 67 68 64 64 62 63 65 62 64 63 61 60 59 57 55 52 55 55 50 47
67 68 70 70 70 70 71 72 72 71 71 71 71 71 71 71 69 64 63 67 68 68 67 67 66 63 62 60 61 64 62 62 60 59 57 55 51 49 50 51 53 51 49
67 68 70 71 71 71 72 72 71 72 70 70 70 69 69 70 71 64 62 64 67 68 67 67 65 62 60 59 60 61 59 60 59 57 55 53 50 49 52 51 50 50 50
67 68 70 70 71 72 71 71 71 71 71 70 70 70 70 70 68 62 62 63 64 64 63 61 60 60 61 61 58 58 61 60 58 56 54 51 51 51 49 48 46 45 42
65 68 67 68 69 70 71 71 71 71 71 70 70 71 70 67 64 63 63 63 62 60 60 60 60 60 60 59 60 60 60 58 56 55 52 50 49 50 49 48 46 44 39
61 60 61 63 65 67 69 72 66 64 69 69 70 71 69 65 61 61 61 60 60 61 61 60 60 60 59 59 58 58 57 56 55 53 51 50 49 49 49 47 44 40 38
63 63 63 67 65 64 68 70 68 65 61 67 68 66 62 58 60 60 60 60 60 61 61 61 60 59 59 58 57 56 55 55 55 52 51 51 51 51 47 44 40 39 34
62 63 65 61 61 64 66 67 68 65 66 60 59 61 58 58 60 59 59 59 55 61 62 60 59 59 59 58 57 56 55 55 53 52 53 52 51 48 44 40 37 34 33
61 63 63 60 59 57 56 56 57 62 65 60 55 56 56 57 56 54 53 60 58 61 61 60 60 60 60 59 57 55 54 53 53 53 52 50 47 43 40 37 33 32 31
63 61 62 63 61 61 60 58 56 57 59 59 59 56 52 54 54 54 59 61 61 61 62 61 61 61 60 59 56 54 54 53 53 52 47 45 42 40 36 34 32 30 31
62 62 61 62 62 61 60 60 58 57 55 58 60 55 56 58 56 57 61 60 61 61 62 62 61 60 59 57 55 54 52 51 49 46 44 43 41 37 36 33 31 30 28
62 62 62 61 61 60 60 60 59 60 60 58 55 53 57 59 58 60 61 62 62 62 61 59 57 56 55 54 54 53 50 48 45 44 44 41 39 37 33 32 30 29 29
61 61 61 61 61 60 60 60 59 58 56 56 56 57 60 60 60 61 61 60 60 59 57 56 55 54 55 55 54 51 48 46 45 45 43 41 38 36 34 32 30 29 28
58 58 59 60 60 60 61 60 59 57 57 58 58 59 60 61 60 60 59 58 57 56 56 56 55 54 53 51 50 49 47 45 45 45 43 40 37 35 34 31 30 28 24
54 55 55 55 55 57 58 59 58 58 58 58 56 57 57 56 58 58 58 58 56 55 55 54 51 51 51 50 48 47 44 44 46 43 42 39 37 35 31 30 27 23 22
51 51 50 52 55 56 56 56 56 56 56 55 55 56 56 56 56 56 57 57 55 53 52 51 50 50 51 50 48 46 41 40 40 37 38 36 34 33 30 28 25 23 24

GFSGL_sfc_30mbdewp_024.txt.gz
Dewpoint
69 70 71 70 70 72 71 72 73 71 71 71 71 70 70 70 71 72 71 68 70 69 66 64 64 60 56 56 57 55 54 54 52 51 53 56 60 61 57 58 59 59 58
68 71 71 71 71 70 72 72 73 72 72 72 71 71 70 70 71 72 71 68 70 69 68 66 65 63 63 60 58 58 57 56 54 55 54 55 61 60 62 62 60 57 56
67 68 69 70 71 71 72 72 73 73 73 71 72 72 71 70 71 71 72 71 69 70 69 68 66 63 63 58 59 56 58 58 59 55 55 57 56 59 61 63 61 60 59
63 66 68 70 71 71 72 73 73 73 73 73 73 73 72 71 70 70 71 71 70 70 70 69 67 65 63 63 61 61 58 57 58 57 54 53 56 57 58 55 57 60 58
64 64 68 70 72 72 72 73 73 73 73 73 73 73 73 71 69 71 71 70 71 70 70 70 69 67 65 64 61 62 62 61 55 56 55 54 54 55 56 55 54 54 55
64 65 67 70 72 72 73 73 73 73 73 74 73 73 72 70 68 68 71 70 71 71 70 70 69 68 66 64 63 62 63 62 60 55 54 54 56 57 57 56 54 53 52
65 67 68 70 72 72 73 73 73 73 73 73 73 73 73 73 67 66 68 70 71 71 71 70 70 68 67 67 64 62 62 63 63 62 61 59 58 60 61 60 58 57 56
67 68 69 70 71 72 73 73 73 73 73 73 73 73 73 73 70 66 67 70 71 70 70 70 70 69 68 67 67 64 62 62 63 61 61 62 63 62 63 62 61 59 59
67 68 69 70 70 71 72 73 73 73 73 73 73 73 73 73 70 67 66 69 69 71 71 71 71 71 70 66 67 67 65 65 63 63 63 63 62 63 62 59 58 56 54
66 67 69 70 70 71 72 73 73 73 72 71 72 73 73 73 71 67 67 68 67 68 70 72 69 71 69 66 67 67 67 65 64 64 64 63 62 61 60 61 57 55 51
65 65 68 70 71 71 72 73 73 72 71 72 72 73 73 73 73 66 66 70 66 67 65 68 70 68 65 65 66 68 67 66 64 62 63 62 61 60 58 59 57 52 47
65 65 68 70 70 69 72 73 72 72 72 72 72 72 72 73 71 66 64 67 69 66 66 66 69 65 64 63 64 66 66 64 63 61 60 59 58 57 54 54 54 52 49
66 67 68 69 70 70 72 72 71 72 70 70 69 70 69 70 72 69 64 65 67 69 66 67 68 65 62 61 62 63 63 64 62 61 60 59 57 54 53 54 54 54 53
68 69 69 70 70 70 70 70 70 69 70 69 68 69 69 69 69 70 65 63 65 67 66 66 63 61 62 62 60 61 65 64 63 61 60 58 55 53 51 49 47 48 45
68 68 69 69 70 70 71 68 68 69 68 69 69 68 69 68 70 71 67 64 66 66 61 61 61 61 61 61 62 63 65 64 62 61 59 56 53 52 49 49 47 45 44
61 59 59 60 61 65 66 68 67 67 67 66 66 69 69 70 68 67 64 64 63 60 63 62 62 63 63 62 62 62 63 62 61 60 57 54 52 50 48 48 47 45 42
63 64 62 64 62 61 62 63 63 67 69 68 67 66 66 68 63 62 61 61 59 62 64 63 63 62 62 62 62 62 61 60 60 57 55 53 50 49 49 47 46 44 41
64 64 62 61 62 64 65 65 65 65 65 66 66 64 64 63 61 60 57 57 58 64 64 62 62 62 62 62 61 60 59 58 57 55 54 51 50 49 49 46 44 42 40
61 61 60 58 58 58 59 59 57 58 60 61 59 58 56 52 57 57 55 62 61 62 62 62 62 62 61 61 60 59 59 57 56 55 51 50 50 49 47 44 42 37 34
63 61 61 60 60 60 60 59 56 57 59 60 58 56 55 55 54 54 59 63 61 62 62 62 62 60 60 61 61 59 57 56 55 52 50 50 49 47 44 42 39 35 33
62 62 61 62 60 61 60 58 58 57 55 58 59 58 58 58 58 58 59 61 62 63 62 61 61 61 63 62 60 57 56 53 52 51 50 48 47 44 43 39 37 34 30
62 61 62 61 60 60 61 60 60 60 60 58 57 58 57 60 59 59 61 62 63 63 63 63 62 62 62 60 59 56 53 51 51 50 48 46 45 44 41 40 36 33 29
56 59 60 61 61 60 60 59 59 58 58 57 58 57 59 59 59 60 62 62 63 63 63 63 62 61 60 58 57 53 49 49 49 48 46 45 44 42 40 37 35 32 29
55 56 56 57 58 58 58 59 59 58 58 58 58 59 60 61 61 62 62 62 62 62 61 60 57 54 54 53 53 51 48 48 48 47 46 45 43 41 39 37 35 32 29
52 53 54 56 56 57 57 57 57 56 56 57 58 58 58 58 59 60 60 60 58 57 57 56 54 53 54 54 52 51 48 47 48 46 47 44 42 40 39 36 34 32 30
47 47 49 49 48 51 52 52 53 53 53 53 53 54 57 58 57 58 58 58 57 56 56 54 53 53 53 52 50 47 43 44 46 44 45 43 42 41 39 37 33 31 26

GFSGL_sfc_30mbdewp_027.txt.gz
Dewpoint
72 72 72 73 73 74 73 73 73 73 73 71 72 71 72 72 73 73 72 70 72 71 69 68 67 66 56 55 56 54 53 53 51 51 53 58 60 59 59 58 58 60 59
71 72 72 72 73 73 74 73 74 73 73 74 73 73 73 72 73 73 73 68 71 71 70 69 66 65 66 63 57 60 56 56 54 56 56 58 61 63 63 63 61 57 58
69 70 72 72 72 72 73 74 74 74 74 73 74 74 74 73 72 73 73 73 71 71 71 71 69 67 67 60 60 58 57 59 59 57 55 56 57 60 63 64 64 63 61
65 66 69 72 72 72 72 74 74 74 74 74 73 74 74 74 73 73 73 73 73 71 72 72 71 69 68 67 64 63 61 58 58 57 55 53 55 58 58 58 61 62 61
65 66 68 71 72 73 73 73 74 74 74 75 74 74 75 74 72 72 72 73 73 72 72 72 72 71 69 68 64 64 62 61 54 55 56 54 53 55 59 59 59 59 63
64 65 67 70 72 73 74 74 75 74 75 75 74 74 74 73 70 69 72 72 73 73 72 72 72 70 68 66 65 64 64 64 61 54 53 55 59 57 56 56 57 57 56
64 67 67 70 72 73 74 74 74 75 75 75 75 74 74 74 70 67 68 71 72 73 73 72 72 69 70 68 65 64 63 64 64 64 61 59 60 61 61 61 61 60 57
66 66 68 69 71 73 74 74 75 75 75 75 75 75 74 74 72 68 66 70 71 72 73 73 73 70 71 70 69 66 65 64 65 63 64 65 64 64 65 64 64 62 61
66 68 68 70 71 73 74 74 75 75 75 74 75 75 75 75 72 70 66 69 70 71 72 73 73 72 72 69 70 69 67 65 64 65 64 63 63 64 64 64 60 59 57
66 68 70 71 72 73 74 74 75 75 75 74 74 75 75 75 74 70 68 70 69 70 71 73 70 72 71 67 69 70 69 67 66 64 63 63 63 63 62 65 60 58 58
63 66 70 72 73 73 74 74 75 75 73 74 74 74 75 75 75 71 67 72 69 69 69 70 71 69 69 66 68 70 69 69 67 66 64 65 64 64 63 62 62 60 55
65 67 70 72 71 71 74 74 75 75 74 74 74 73 73 75 73 72 67 68 71 69 68 68 69 68 66 66 65 69 69 69 68 66 65 64 62 61 61 61 61 60 56
67 69 70 72 72 72 73 74 73 74 71 71 70 71 71 71 74 71 67 66 68 70 69 68 66 64 65 65 64 66 66 68 66 64 63 62 61 61 61 61 60 58 56
67 68 69 70 71 71 70 71 70 69 69 70 68 69 68 69 70 71 70 65 64 66 69 69 65 64 66 68 63 65 67 68 66 64 62 62 62 61 58 56 55 54 51
69 69 69 69 70 71 71 68 68 70 68 67 68 67 67 67 67 69 69 71 69 67 69 68 65 64 65 64 65 65 67 67 65 64 63 64 62 57 55 55 53 50 48
68 68 67 66 67 69 68 70 69 69 68 67 66 67 69 69 67 66 66 67 67 66 68 66 65 64 63 63 64 64 66 66 65 65 64 63 60 55 54 53 51 49 47
65 64 61 60 58 58 60 61 61 67 68 69 66 62 61 60 62 63 65 65 64 65 68 66 65 65 64 64 64 64 64 64 65 65 63 62 58 56 53 52 51 49 47
63 62 61 60 61 63 63 62 61 59 59 59 60 60 58 55 55 59 61 61 61 63 68 67 66 65 64 64 64 64 64 64 64 63 62 60 56 55 53 50 50 49 46
62 62 61 59 58 59 60 60 58 57 59 59 59 58 58 54 54 52 50 60 64 61 66 68 66 65 64 64 64 63 63 63 63 61 60 57 55 53 51 50 48 45 44
62 61 61 61 60 60 60 59 57 56 56 58 58 57 58 59 59 58 57 54 57 61 63 64 66 65 64 64 63 63 62 62 61 60 57 56 54 51 49 49 46 43 41
61 61 61 60 60 60 60 60 60 59 58 57 56 56 56 58 60 60 60 59 61 63 64 63 63 64 64 64 63 62 61 60 60 58 56 54 52 51 49 47 44 41 38
60 61 61 60 60 60 60 60 59 59 59 58 59 58 58 59 59 59 59 59 60 61 64 64 63 64 64 64 63 61 60 58 57 56 53 52 51 49 47 43 41 38 36
57 58 59 59 59 59 59 59 59 59 59 59 59 60 61 61 61 60 61 62 63 63 64 64 64 64 64 64 62 60 57 56 55 54 53 51 49 48 44 42 40 38 35
56 56 56 57 56 56 56 55 55 55 56 57 58 59 59 60 60 62 63 63 62 63 63 64 64 64 63 62 60 58 55 54 54 53 51 48 46 45 44 42 40 37 35
51 51 52 53 53 53 53 53 54 53 53 52 52 52 52 55 57 60 60 60 60 60 61 62 61 62 61 58 57 54 51 49 51 50 49 47 45 46 43 42 40 37 35
45 45 46 46 46 47 47 49 51 50 50 49 50 50 50 51 52 55 56 55 57 57 57 57 57 56 55 54 53 49 45 46 48 47 48 47 46 44 42 40 37 36 34

GFSGL_sfc_30mbdewp_030.txt.gz
Dewpoint
73 73 73 74 73 72 72 71 73 71 73 70 74 74 74 73 74 74 73 72 73 72 72 71 69 66 63 62 60 60 59 58 54 57 61 62 59 61 59 60 63 62 61
73 73 73 73 74 73 71 72 73 74 72 74 73 73 73 73 73 73 73 71 72 73 72 71 70 68 66 66 66 59 59 60 58 57 61 63 61 62 65 64 62 60 62
72 73 73 73 73 73 74 72 73 73 74 72 74 73 73 73 73 74 74 73 71 73 73 72 70 69 68 65 64 64 61 63 64 59 60 63 64 66 64 65 66 65 64
70 72 72 73 73 73 73 74 72 74 73 74 73 74 74 74 74 73 73 73 73 72 73 73 72 70 69 68 65 62 64 61 61 62 60 59 62 64 66 63 64 66 64
66 70 71 72 73 73 73 73 74 73 73 74 73 74 74 74 74 73 73 73 74 73 72 73 73 72 70 70 67 67 63 66 63 61 60 60 59 61 63 63 62 62 64
65 66 69 71 72 74 73 74 74 74 74 74 74 74 74 74 73 72 73 73 73 73 73 72 73 72 71 69 68 66 67 63 62 60 60 59 59 59 63 61 61 60 58
66 67 68 70 71 73 74 74 74 74 74 74 74 74 74 74 72 71 71 72 72 73 73 73 73 72 72 70 67 66 65 65 64 62 60 59 61 63 62 63 62 62 60
67 67 70 71 71 72 73 74 74 74 75 74 75 75 75 74 73 70 70 71 72 72 73 73 73 72 72 71 69 67 66 65 65 65 65 64 66 66 66 66 64 64 64
66 68 68 72 71 72 73 74 74 75 75 75 75 75 75 75 73 71 68 70 71 71 72 73 73 73 73 70 70 68 66 66 65 65 65 67 66 64 68 65 64 63 61
66 67 69 69 71 72 73 74 75 75 75 75 75 75 75 75 75 71 69 72 70 70 71 72 72 73 72 69 70 70 68 67 66 64 65 63 63 64 64 66 64 61 60
66 67 70 72 71 72 73 75 75 75 75 75 75 75 75 75 75 72 69 73 72 71 70 70 71 70 70 68 69 70 70 70 67 66 65 64 64 64 64 66 66 63 60
65 68 71 72 72 72 73 75 75 75 75 74 75 75 75 75 74 74 70 70 73 73 71 70 70 70 68 67 67 69 69 69 69 67 65 64 64 64 65 65 65 64 63
69 70 70 73 73 72 74 74 74 75 74 74 74 73 74 74 74 73 71 69 70 71 73 72 68 67 67 65 66 67 68 70 70 67 66 65 65 65 65 65 63 64 61
70 72 72 73 74 74 73 74 74 73 73 73 72 72 72 72 72 73 72 68 67 69 70 71 71 70 65 66 65 64 69 70 70 68 67 66 66 65 63 63 61 60 59
69 71 72 72 73 73 73 71 73 73 71 71 72 71 70 70 66 63 66 70 70 69 71 72 72 70 70 67 67 66 68 70 70 69 67 66 64 64 62 61 58 58 55
71 71 70 69 71 71 72 72 71 70 66 63 62 65 66 58 54 55 59 64 66 68 68 70 71 71 68 68 68 67 68 69 69 68 66 65 63 62 59 58 58 56 54
67 66 63 62 64 71 70 71 71 65 61 59 58 56 54 53 53 53 53 56 62 63 69 69 69 70 69 68 68 67 67 68 69 67 65 64 63 62 60 58 56 54 53
65 62 62 62 63 63 62 61 61 60 62 62 60 58 56 57 54 54 54 57 61 61 65 68 69 69 69 68 67 67 67 67 67 66 64 64 62 62 60 57 55 53 52
64 63 61 60 61 61 62 61 60 59 61 61 60 59 59 58 57 56 58 57 57 58 61 62 62 63 65 68 68 67 67 67 66 65 63 62 62 61 59 58 54 52 51
61 60 61 62 62 61 61 60 59 59 58 60 59 57 57 59 59 60 60 61 61 61 63 63 63 64 64 64 64 66 66 66 65 64 63 63 63 61 57 54 52 51 50
61 62 61 61 61 61 61 60 60 60 60 60 59 57 57 59 59 59 59 60 60 61 63 64 63 63 62 62 63 63 64 63 63 63 63 63 61 57 54 53 51 49 46
61 60 60 60 60 60 59 59 59 59 59 59 59 59 60 61 61 61 61 61 61 62 62 64 64 64 63 61 62 62 61 63 63 63 63 61 58 54 52 51 49 47 45
58 58 58 58 57 58 58 57 57 58 57 56 56 57 58 58 59 60 62 63 63 63 64 65 65 65 65 65 65 64 63 63 63 61 58 56 54 52 50 48 47 45 43
56 55 55 54 54 54 54 54 53 52 52 52 53 53 53 53 55 56 56 57 60 61 65 65 65 64 65 64 63 62 61 61 60 59 56 53 52 50 49 47 44 43 41
50 51 50 49 49 51 50 50 50 49 50 50 50 50 51 51 52 52 54 56 56 56 57 60 62 63 63 61 62 62 61 58 58 56 54 52 50 49 48 46 45 43 41
47 46 45 46 47 46 46 47 47 48 48 48 48 48 49 49 49 49 49 50 52 52 53 52 49 56 62 62 61 56 51 52 52 52 53 51 50 48 47 46 45 42 40

GFSGL_sfc_30mbdewp_033.txt.gz
Dewpoint
71 71 72 71 70 72 71 68 69 71 70 69 72 72 72 72 74 73 72 73 73 72 72 70 69 68 64 62 63 61 58 57 53 55 59 60 61 61 62 62 62 63 60
72 71 71 72 72 70 72 72 67 71 70 73 74 73 73 73 73 74 73 72 71 72 72 71 70 69 66 64 65 59 58 59 55 53 62 61 59 60 59 61 61 61 61
72 72 72 72 72 71 70 71 73 68 72 70 74 73 73 73 73 73 73 73 72 72 72 72 71 69 67 65 64 64 61 59 60 56 60 61 60 63 62 61 61 62 62
71 72 72 72 72 73 72 71 70 72 71 74 71 73 73 73 73 73 73 73 73 71 73 73 72 70 68 67 65 63 64 61 62 60 58 60 62 63 62 62 63 65 63
70 71 72 73 73 73 73 73 73 70 72 72 73 72 74 73 73 73 73 73 73 73 71 73 73 71 70 68 67 64 62 63 61 60 60 59 58 63 63 63 60 61 64
67 70 71 72 72 73 73 73 73 73 71 72 72 72 73 73 73 72 73 72 73 72 72 72 73 72 71 69 68 66 64 59 63 60 59 59 59 59 62 62 62 62 61
65 68 70 71 72 72 73 73 72 73 73 72 71 73 72 73 72 71 72 72 72 72 72 72 72 72 72 71 68 68 65 64 60 62 60 59 58 60 61 62 62 61 60
64 66 67 71 72 72 73 72 73 73 73 73 73 72 73 73 72 71 70 72 72 72 73 73 72 72 72 72 71 68 68 66 65 62 62 61 61 61 62 62 62 62 63
65 67 68 70 71 72 72 73 73 73 73 73 74 74 73 74 73 71 70 71 72 72 72 73 73 72 72 70 71 70 68 68 66 65 63 62 63 66 67 66 63 61 61
67 70 71 70 71 71 72 72 73 73 73 74 73 74 74 74 74 71 70 72 71 71 72 72 71 72 72 70 71 71 69 68 67 66 64 64 64 64 66 65 64 62 61
67 68 70 72 72 73 72 72 73 73 74 74 74 74 75 75 75 72 70 73 73 72 71 71 71 70 70 70 69 71 70 70 68 67 66 64 64 65 64 66 65 64 62
66 68 69 70 71 73 73 74 74 74 74 74 74 74 75 75 74 73 71 70 74 73 73 72 72 69 68 68 67 70 69 69 69 67 66 65 64 63 64 66 66 65 64
68 68 69 71 72 71 73 74 74 75 74 74 74 74 74 75 75 74 72 70 71 73 74 73 72 71 68 66 66 68 67 69 70 69 67 66 65 64 64 64 66 66 63
67 73 72 72 73 73 74 74 75 75 74 74 74 74 74 74 74 72 70 68 66 67 70 72 72 71 71 69 66 64 65 69 70 70 69 68 66 65 64 64 64 64 62
71 74 73 73 73 73 73 74 74 73 74 73 73 73 72 70 62 58 61 66 69 69 69 70 71 72 72 72 69 68 66 66 69 70 71 70 67 65 64 65 64 63 61
71 71 72 72 73 73 73 68 60 63 62 61 66 62 55 56 55 54 54 56 59 61 65 69 69 70 71 72 72 71 69 67 67 69 70 70 67 65 65 65 64 62 61
68 70 70 69 71 71 72 69 60 57 53 54 56 57 57 55 54 55 53 57 60 63 65 68 69 69 70 71 71 71 71 70 69 68 69 70 68 66 65 63 62 61 59
66 62 65 64 63 63 65 70 62 61 60 57 56 56 54 54 55 57 58 59 59 60 61 61 62 62 62 62 62 63 64 66 69 69 68 69 68 66 64 62 60 60 59
62 62 61 62 63 63 62 61 63 62 61 60 58 57 58 57 57 58 59 59 58 59 61 61 61 62 62 62 63 63 64 63 64 64 65 67 68 65 62 61 61 59 58
62 62 63 63 63 62 62 62 62 62 61 59 58 59 59 59 59 59 60 60 60 60 61 62 62 62 62 62 62 62 61 62 61 63 65 64 62 61 60 60 59 58 57
62 62 61 61 60 60 60 59 59 59 59 59 59 58 57 60 61 61 61 62 61 61 60 60 61 62 62 62 61 61 62 59 61 59 59 61 60 59 61 60 59 58 56
59 61 60 60 59 58 58 58 57 56 55 56 56 56 56 57 57 58 58 59 61 62 63 64 63 64 64 64 63 60 61 62 61 61 61 61 62 61 60 59 58 56 52
57 57 57 57 56 55 54 54 54 53 53 53 53 53 53 53 54 55 55 56 57 58 59 60 63 63 64 65 65 64 63 63 62 62 61 60 59 59 58 57 53 49 46
54 53 53 53 53 53 52 52 51 50 50 50 50 50 50 50 50 50 51 53 54 54 53 51 51 49 58 63 63 62 62 61 60 59 59 58 58 57 57 53 48 46 44
49 49 50 50 49 49 49 49 48 49 49 48 48 48 48 48 48 48 48 48 49 49 49 48 46 45 44 45 46 56 58 58 59 57 57 57 56 53 49 47 46 45 43
47 48 48 48 47 48 48 48 48 48 48 47 46 45 45 45 45 45 45 45 45 45 45 46 46 44 41 40 38 37 43 49 55 55 56 53 50 49 47 46 44 43 41

GFSGL_sfc_30mbdewp_036.txt.gz
Dewpoint
70 70 69 68 69 72 69 67 67 70 69 69 71 71 72 72 72 71 72 72 71 70 72 70 68 68 65 63 62 62 59 57 53 53 60 59 61 61 61 63 58 58 57
70 71 70 70 69 69 72 70 68 68 70 69 71 71 72 72 72 71 71 71 73 71 71 71 70 69 67 65 62 60 61 59 55 53 54 61 59 61 60 62 60 60 60
70 70 70 71 70 69 69 72 70 68 69 71 72 71 71 72 72 73 72 71 71 72 72 71 71 70 69 67 64 61 62 60 59 55 53 61 60 61 60 61 61 61 62
70 70 70 70 71 71 70 69 72 71 67 69 72 73 72 72 72 72 72 72 72 72 72 72 71 70 69 68 67 65 63 62 60 59 57 59 61 62 61 58 59 62 60
70 70 70 70 71 72 72 70 70 70 72 68 69 71 73 73 73 72 72 72 72 72 72 73 72 72 71 70 68 66 64 62 62 61 59 58 60 60 59 60 59 59 62
70 70 71 71 71 71 72 72 71 70 69 71 71 72 71 72 72 72 72 72 72 72 71 71 72 72 71 70 68 68 66 64 62 61 60 59 57 59 61 59 60 59 58
69 70 71 71 72 72 72 72 72 72 71 69 69 71 71 72 71 71 71 72 72 72 71 71 72 71 72 72 69 67 67 65 64 62 60 59 58 58 58 61 61 60 59
66 69 70 71 71 72 72 72 72 72 73 72 71 70 72 71 71 70 70 72 72 72 72 72 71 72 71 72 72 69 68 67 65 63 61 60 60 59 60 59 60 61 62
64 65 69 70 72 72 72 72 72 72 72 72 73 72 71 71 71 70 69 71 72 72 72 72 72 72 72 70 71 71 70 69 69 65 65 62 61 60 60 60 60 61 60
63 64 66 69 70 71 72 72 72 72 72 72 72 73 73 73 71 70 70 71 71 71 72 73 71 72 72 70 71 71 70 71 70 69 66 64 62 61 61 60 60 60 59
65 64 67 67 69 71 71 72 72 72 72 72 72 73 73 73 73 71 69 72 73 72 72 72 72 71 69 70 69 72 71 71 71 70 69 67 66 65 62 64 63 61 60
67 68 69 69 68 69 70 71 72 72 72 72 72 73 74 74 74 72 70 70 73 73 73 73 73 71 69 68 67 69 70 70 71 71 70 69 68 67 66 65 65 65 63
68 67 68 70 72 72 72 71 71 72 72 72 73 73 74 75 75 73 71 70 70 73 75 74 73 72 70 67 65 67 66 68 71 71 71 70 69 69 68 66 66 67 66
69 69 69 69 71 71 73 73 73 73 73 73 74 74 74 75 75 73 71 69 68 67 68 70 71 71 71 71 69 67 65 67 69 70 71 72 72 70 69 67 65 65 65
69 72 72 72 71 72 69 68 74 74 74 74 74 74 74 73 68 64 65 67 68 67 68 69 69 70 71 72 72 72 71 68 67 68 69 70 71 71 69 68 66 65 64
68 70 72 73 73 73 68 62 54 57 64 69 70 67 57 58 55 54 54 55 58 59 64 65 67 68 69 70 71 71 71 69 69 69 69 69 69 70 70 68 66 64 64
66 63 69 71 73 73 66 61 58 57 55 54 56 57 57 57 55 54 58 58 59 60 62 60 61 62 62 61 62 62 62 62 63 64 64 65 67 68 67 66 66 65 64
63 64 67 67 69 72 65 60 58 58 58 57 56 56 55 56 57 57 57 58 58 60 60 60 60 60 61 61 61 61 62 62 62 62 63 63 63 64 64 63 63 65 64
62 63 63 64 63 66 65 62 62 59 58 58 58 58 54 54 56 57 57 59 58 58 59 60 61 61 61 61 61 61 61 61 60 60 62 63 61 60 59 60 61 62 62
61 61 61 61 61 61 62 62 61 59 59 58 57 58 59 60 60 60 61 61 60 60 60 60 60 61 61 61 61 61 60 60 59 59 58 58 59 59 59 59 58 57 57
61 60 59 59 59 59 59 59 59 59 58 56 54 54 56 57 57 57 57 58 59 60 60 61 62 62 62 62 62 62 61 60 60 59 58 59 61 60 60 59 58 57 55
60 59 58 58 57 56 56 55 55 54 54 53 53 52 53 54 54 54 55 56 56 56 56 56 56 55 59 62 63 63 62 61 60 61 60 59 60 60 59 58 57 56 55
58 57 55 54 54 53 53 53 52 51 51 51 50 50 50 50 50 49 49 51 52 51 51 50 49 49 49 53 62 63 63 63 63 62 62 61 60 59 58 57 56 55 55
54 54 53 52 51 51 50 50 49 49 49 48 48 48 48 48 47 47 47 48 48 47 47 47 47 45 45 44 45 47 52 53 59 61 60 60 59 58 57 56 55 54 52
51 51 50 49 49 48 48 47 47 46 45 45 45 44 43 44 44 45 45 45 45 44 44 44 43 43 42 43 41 39 38 43 52 54 58 58 58 58 57 55 50 49 46
48 47 47 48 48 48 48 47 46 45 44 44 44 43 43 42 39 38 41 43 43 43 43 43 43 42 40 39 39 38 37 38 44 47 51 55 56 55 52 51 48 46 45

GFSGL_sfc_30mbdewp_039.txt.gz
Dewpoint
67 67 68 68 69 68 68 68 69 67 68 69 70 70 70 71 71 71 71 70 69 69 71 70 69 68 67 65 63 62 60 57 55 54 57 60 60 60 61 63 61 59 57
68 67 68 69 70 70 69 68 68 69 69 69 70 70 71 71 71 71 71 71 70 70 70 70 70 70 68 67 64 62 61 60 57 55 55 57 59 61 61 61 62 60 58
67 67 68 67 68 69 71 71 68 67 69 69 69 70 71 71 71 71 71 71 71 71 71 70 70 70 69 69 67 65 62 61 60 57 56 56 60 60 60 61 61 61 59
67 68 68 69 69 68 68 70 71 69 68 69 69 70 70 71 71 72 71 71 71 71 72 72 71 71 70 69 69 67 65 63 60 59 58 57 58 60 61 59 59 60 60
67 69 69 70 70 70 69 69 70 71 69 69 69 70 71 71 71 71 72 72 71 71 71 72 72 71 71 70 70 69 67 65 63 60 59 59 59 60 59 59 58 57 59
68 68 69 69 70 70 70 69 69 70 71 70 68 69 70 71 71 71 71 71 71 71 71 71 72 71 71 70 70 69 69 67 65 63 63 60 59 59 59 58 58 58 56
69 69 69 69 69 70 71 71 70 69 69 70 71 69 69 69 70 70 71 71 71 71 71 71 71 72 71 72 70 69 68 67 67 67 64 64 62 60 59 59 58 58 57
68 69 70 70 70 70 70 71 71 71 70 69 69 70 70 70 70 69 69 71 71 71 71 71 71 70 71 71 71 71 70 70 68 66 67 68 66 64 60 59 59 59 59
67 69 70 70 70 71 71 71 72 72 72 71 71 70 69 70 70 69 69 70 71 71 72 72 72 72 71 70 71 71 71 71 70 68 67 67 66 65 63 60 59 58 57
66 68 69 70 71 71 71 72 72 72 72 72 72 73 71 70 70 69 68 70 70 71 72 72 71 72 72 70 70 71 71 71 71 71 69 67 65 65 62 61 62 61 59
63 64 67 70 70 71 71 72 72 72 72 72 72 72 73 72 72 68 68 70 71 71 71 71 72 71 70 70 69 72 71 72 72 71 71 70 70 69 68 65 64 64 63
63 64 65 66 70 70 71 72 72 72 72 71 72 72 72 73 72 70 68 68 71 72 72 73 73 72 69 68 66 68 69 70 71 72 72 72 71 70 69 69 68 65 66
66 66 65 67 67 68 70 70 71 71 71 71 71 72 72 73 73 72 69 68 68 71 74 74 73 72 70 66 65 65 64 66 68 69 70 71 72 72 72 71 69 68 66
69 69 68 69 70 69 69 70 70 70 71 71 72 72 73 74 74 75 71 68 66 67 68 70 71 70 70 71 71 69 67 67 68 69 70 71 72 72 72 72 70 69 67
68 70 72 70 69 70 64 66 71 72 71 72 72 73 73 73 73 71 72 72 71 69 69 69 69 69 69 69 70 72 72 69 67 67 67 68 67 68 68 69 69 69 68
66 66 69 72 71 67 62 61 54 58 64 69 72 72 61 64 60 59 59 60 61 64 67 66 65 66 66 67 66 63 63 62 61 62 63 63 63 63 63 64 65 66 66
65 64 64 71 72 67 62 62 60 57 55 54 56 56 56 54 55 57 57 59 59 61 61 60 59 60 60 60 60 60 60 60 61 60 60 60 61 62 62 62 62 62 62
63 64 66 68 72 66 61 60 60 60 59 57 55 55 54 56 57 57 57 59 59 60 59 59 60 60 60 60 59 60 60 60 60 59 59 60 61 60 59 58 58 57 57
63 63 64 65 68 63 61 59 58 58 58 58 59 58 57 57 58 58 58 59 58 58 59 59 59 60 60 60 60 60 60 60 60 59 58 58 58 59 58 58 58 57 56
61 60 62 63 64 64 62 60 59 59 58 57 57 58 60 60 59 59 59 59 59 58 59 59 61 61 61 61 61 61 61 60 60 59 58 57 58 59 58 58 57 56 54
59 59 59 60 60 60 60 59 58 57 55 54 53 54 56 56 55 55 55 55 55 53 52 53 55 53 53 54 59 60 60 61 60 60 59 59 58 59 59 58 56 56 55
59 58 57 57 57 56 56 55 55 54 53 52 51 51 51 51 50 50 50 50 50 50 50 49 48 48 48 48 50 53 59 61 62 61 61 61 60 59 59 58 57 55 54
57 55 55 54 54 53 52 52 51 50 50 49 49 48 48 48 47 47 47 47 47 46 46 47 46 45 46 45 45 45 46 50 50 56 60 60 61 60 58 57 56 55 54
54 53 52 51 51 50 50 49 48 48 47 47 46 46 46 46 46 45 45 45 45 45 45 44 43 43 42 42 43 43 42 40 38 46 56 60 60 60 59 57 56 55 54
51 51 51 50 49 48 47 46 45 44 43 42 41 40 39 39 41 42 43 43 43 43 43 43 42 42 41 41 40 39 38 37 37 40 49 57 58 58 58 56 55 54 51
49 48 47 46 45 44 43 42 42 41 40 39 38 39 39 37 36 36 36 37 37 37 38 38 39 40 40 39 37 36 36 38 40 40 44 50 54 56 56 55 54 50 48

GFSGL_sfc_30mbdewp_042.txt.gz
Dewpoint
65 65 65 66 66 67 67 67 67 67 68 68 68 69 70 71 71 71 71 70 70 69 70 70 69 69 68 67 64 63 62 59 58 59 57 60 60 61 62 64 64 63 63
65 66 66 67 67 67 68 68 68 67 68 68 69 69 70 70 71 71 70 71 70 70 69 69 70 70 69 69 67 65 63 62 60 59 59 58 59 61 62 62 63 62 62
66 66 66 67 68 68 68 69 68 68 68 68 69 69 69 70 71 71 71 71 71 71 70 70 69 70 70 70 69 67 66 63 61 60 59 59 59 61 60 62 62 63 63
66 66 66 67 68 68 69 69 68 69 69 69 69 69 70 70 71 71 71 71 71 71 71 71 70 70 70 70 69 69 68 67 65 63 61 60 60 61 61 60 59 61 61
65 66 66 67 68 69 69 71 70 68 68 69 69 69 70 70 70 71 72 71 71 71 71 72 72 71 71 71 70 70 69 68 67 65 64 63 61 61 60 60 60 60 61
64 66 67 68 68 68 68 69 71 71 70 69 69 69 69 69 69 69 71 71 71 71 70 71 71 71 71 70 70 70 70 69 68 67 66 65 65 64 62 61 60 59 59
65 66 68 69 69 69 69 69 69 69 71 70 69 69 69 70 69 69 69 70 71 71 71 71 71 71 71 71 70 69 69 68 69 69 68 67 67 67 66 63 62 61 61
67 67 68 69 69 70 70 70 69 69 69 70 70 70 69 69 69 68 68 70 70 71 71 71 71 71 72 72 71 71 71 71 69 68 69 70 70 70 69 67 65 64 63
68 68 69 69 69 69 70 70 70 70 70 69 69 70 70 70 68 68 67 70 71 71 71 72 72 71 71 70 71 71 71 71 71 70 69 69 68 67 67 69 66 61 60
68 68 69 70 70 69 70 70 71 71 71 71 70 70 70 70 69 68 67 69 69 70 71 72 71 72 71 70 70 71 70 71 72 72 71 69 67 68 66 65 67 67 66
67 69 70 70 70 71 71 71 71 71 71 71 72 72 72 71 70 67 66 70 70 70 70 71 72 71 70 70 69 71 71 72 72 72 72 72 72 72 71 71 68 67 67
66 68 69 70 70 71 71 71 72 71 71 71 71 72 72 73 72 70 67 66 70 70 71 71 72 71 69 68 66 68 69 69 71 72 72 72 72 72 73 72 71 70 68
64 65 67 69 70 71 71 71 71 72 71 71 71 71 72 73 73 70 69 66 66 70 72 72 73 73 70 68 67 66 65 66 67 68 69 70 71 72 73 73 73 73 72
66 65 65 66 68 70 71 71 71 71 71 71 71 71 72 73 73 74 71 68 64 64 66 70 70 70 70 71 70 69 67 67 68 68 69 70 71 69 68 68 67 67 66
70 71 68 68 68 67 63 65 69 70 70 71 71 72 72 72 73 74 74 73 71 69 69 69 69 69 70 69 69 70 71 68 67 67 66 65 64 63 63 64 64 63 62
66 67 71 70 69 66 63 61 53 57 63 69 72 72 65 64 65 66 66 65 65 66 68 68 67 66 66 66 64 63 63 61 61 62 61 61 61 61 61 62 61 60 59
64 65 65 71 68 65 63 62 62 55 53 55 58 62 62 57 56 56 57 58 60 63 63 61 60 60 60 61 61 61 60 61 61 61 60 60 60 60 60 58 58 58 56
63 64 64 71 68 64 62 61 61 61 60 57 54 55 55 55 56 57 59 60 60 60 60 60 60 60 60 60 60 61 61 62 62 61 61 60 59 59 59 58 58 58 57
63 63 65 68 66 62 61 60 59 58 58 58 59 58 57 58 59 59 59 59 59 59 60 60 60 61 61 61 61 61 61 61 61 60 61 60 59 59 59 58 57 56 56
61 62 64 64 62 61 60 60 60 59 59 58 59 59 60 59 57 56 57 57 56 55 55 56 55 55 54 55 57 59 60 60 61 60 61 60 59 59 59 58 57 55 55
60 60 61 62 61 60 60 59 58 57 55 54 53 54 56 55 54 53 52 51 51 50 50 50 50 49 49 50 50 52 54 58 61 61 61 61 61 60 60 60 59 56 56
59 59 58 58 58 58 57 56 55 54 52 51 50 49 50 50 49 49 49 48 48 48 48 48 47 47 47 47 47 47 47 48 51 51 53 59 61 61 60 59 59 58 57
57 57 56 55 54 53 53 53 52 51 50 49 49 48 47 47 47 46 46 46 46 45 45 45 44 44 44 45 45 44 44 44 44 43 44 52 58 60 60 59 60 58 57
55 55 54 53 51 51 50 49 48 47 47 46 46 45 45 45 45 45 44 44 44 44 44 43 43 42 42 42 41 41 42 39 38 41 42 47 55 60 59 58 58 57 56
53 52 51 50 49 48 46 45 44 43 42 41 40 40 40 40 40 40 41 40 39 39 38 39 39 38 38 38 37 37 36 34 37 39 43 46 51 56 58 58 57 56 56
49 48 47 46 45 44 43 42 40 38 37 36 36 35 34 34 34 34 34 34 33 33 33 33 34 34 34 34 34 33 33 34 37 41 47 49 48 48 50 54 56 55 53

GFSGL_sfc_30mbdewp_045.txt.gz
Dewpoint
66 66 67 67 68 68 68 68 69 68 69 69 70 70 71 71 71 72 71 71 72 72 72 71 71 71 69 68 67 66 65 63 60 58 61 61 65 65 63 64 65 64 63
66 66 67 67 67 67 68 68 69 69 69 69 70 70 71 71 71 71 71 69 71 71 71 71 71 70 71 71 69 69 67 66 64 62 62 61 63 63 65 66 65 62 62
65 65 66 66 67 68 68 68 69 69 69 69 69 69 70 70 71 71 71 71 71 71 71 71 71 71 71 69 70 69 68 69 68 65 64 63 63 62 62 64 65 64 64
64 65 66 67 67 68 69 69 69 70 69 69 70 70 69 70 70 71 71 71 71 71 71 71 71 71 71 71 71 70 70 69 68 68 66 64 65 65 65 63 62 62 61
66 66 66 68 68 69 69 70 70 70 70 70 70 69 70 69 69 70 71 71 71 71 72 72 72 72 72 72 71 71 70 70 68 67 65 65 64 64 64 64 63 64 64
66 66 67 68 69 69 70 70 70 70 70 70 70 70 70 69 67 68 70 70 71 72 71 71 72 72 72 71 70 70 71 71 70 69 67 66 69 69 68 68 67 66 65
67 67 68 69 69 70 70 71 71 70 70 70 70 70 70 71 69 67 68 69 69 70 71 71 71 70 71 72 71 70 69 69 69 71 71 71 71 71 71 71 70 70 68
67 67 69 69 69 70 70 70 71 71 71 71 70 71 70 71 70 68 67 69 70 71 71 71 71 71 71 71 71 70 71 71 71 70 70 71 72 73 73 73 72 71 70
67 67 69 70 70 70 70 70 70 70 70 70 71 71 71 71 69 69 68 69 69 71 71 71 71 71 71 71 71 70 70 71 71 71 71 71 70 69 69 69 69 69 67
67 68 69 70 70 70 71 71 71 71 70 70 70 71 71 72 71 67 67 68 68 69 71 72 71 71 71 70 71 70 70 71 72 73 73 72 70 70 68 67 69 67 68
67 68 70 71 71 71 72 72 71 71 70 71 70 71 71 71 71 69 66 69 68 68 69 69 70 70 69 69 69 72 72 73 73 73 73 73 74 74 74 74 72 69 69
70 70 71 71 70 70 72 72 71 72 71 71 71 71 71 72 71 70 67 66 70 70 71 71 72 71 69 68 67 68 68 69 71 71 71 72 72 72 73 73 73 73 72
70 71 71 71 71 71 72 71 71 72 70 70 70 70 70 72 73 71 68 65 65 69 72 72 71 71 70 68 67 67 66 66 67 68 68 69 70 72 72 71 70 67 66
69 70 71 71 71 71 71 71 70 70 70 70 70 70 70 71 73 73 71 68 64 65 67 70 72 72 72 72 71 69 66 67 67 68 69 70 70 68 65 63 62 62 61
67 68 69 69 70 71 71 68 70 71 70 70 70 71 71 71 72 73 73 73 72 70 70 71 71 70 70 71 70 70 71 69 67 68 67 65 63 61 60 61 61 60 58
71 69 67 66 68 69 66 62 54 57 62 68 71 72 69 67 69 70 71 72 72 69 69 69 69 69 68 67 66 66 66 64 64 63 62 61 60 60 60 59 59 58 57
67 67 71 70 69 67 66 65 63 56 55 59 63 67 67 64 62 62 62 61 62 66 67 65 63 62 62 63 63 62 62 62 63 62 61 61 60 59 59 59 58 57 57
66 64 64 71 69 67 67 67 66 65 65 60 54 56 56 57 57 59 59 61 61 62 62 62 62 62 62 62 61 61 61 62 62 62 62 61 60 59 59 59 59 58 57
65 66 69 69 67 67 66 66 66 64 62 58 58 57 56 56 57 59 61 62 61 61 62 61 62 61 61 61 61 61 62 62 62 61 61 62 61 59 59 60 59 57 56
64 63 65 63 63 64 64 64 63 63 62 61 60 60 61 59 58 58 58 59 59 57 57 57 56 56 55 54 55 56 57 60 61 61 62 62 62 62 61 60 60 58 57
62 63 63 63 62 62 62 61 61 60 57 55 54 55 57 57 56 54 54 54 53 53 52 52 52 51 51 51 52 52 52 53 54 55 56 57 60 61 62 61 61 59 58
61 62 62 62 61 60 59 58 56 54 53 52 51 51 52 52 52 51 49 49 49 49 49 50 48 48 49 49 50 50 50 51 51 51 52 53 55 59 61 61 61 60 59
60 60 59 58 57 55 55 54 53 52 51 50 50 49 49 49 48 47 47 47 47 47 47 47 46 46 46 46 46 46 46 47 46 47 48 50 51 55 59 60 60 60 59
59 58 57 56 55 54 53 51 49 49 48 47 47 47 46 46 46 46 45 45 45 45 45 45 44 44 44 43 42 43 43 41 41 45 48 48 49 52 56 59 59 59 59
56 56 53 52 51 49 48 47 45 45 44 43 43 43 43 43 42 43 43 43 42 39 37 35 34 34 33 33 33 32 33 33 39 39 49 50 50 50 51 53 58 58 57
54 53 51 49 48 46 45 44 42 41 39 37 36 35 35 34 34 33 33 32 32 31 31 30 30 29 28 26 27 28 29 31 35 38 45 49 49 48 49 49 50 51 56

GFSGL_sfc_30mbdewp_048.txt.gz
Dewpoint
66 66 67 66 67 68 67 68 68 68 67 69 67 66 68 69 70 71 70 68 70 70 70 69 70 70 67 64 64 63 62 61 58 56 56 57 64 66 65 64 64 64 62
66 68 67 67 67 66 68 68 69 69 69 69 68 68 67 68 69 71 70 68 69 70 70 70 70 69 70 70 67 66 64 63 61 63 62 60 62 63 64 66 66 62 60
65 65 65 66 66 66 68 68 69 69 70 69 68 69 68 67 69 70 70 70 69 69 70 69 70 70 70 68 68 66 65 67 68 66 65 63 62 63 64 67 66 66 65
63 64 65 66 66 66 68 69 68 70 70 69 69 69 69 68 67 69 69 70 69 69 70 70 70 70 71 71 71 71 70 70 67 66 64 61 60 61 62 63 63 64 63
64 63 65 68 68 68 69 70 70 70 70 70 69 69 69 68 66 67 68 68 69 69 69 70 71 71 71 72 71 71 70 69 66 63 62 62 61 62 63 64 65 65 66
65 65 66 69 70 70 70 71 71 71 71 70 69 69 69 68 65 65 66 66 67 69 69 70 71 71 72 71 71 71 71 71 71 69 66 64 69 68 66 66 65 65 65
67 67 68 70 71 71 71 72 71 71 71 71 70 69 70 70 67 65 66 66 65 67 69 69 68 66 69 70 70 70 70 70 69 71 70 70 71 71 72 72 71 71 71
68 69 69 71 71 72 72 72 73 71 71 71 71 71 71 71 69 67 66 68 68 68 68 68 70 69 69 68 69 69 69 70 72 71 71 71 71 71 73 74 73 73 72
68 69 70 71 71 71 71 72 72 71 71 71 71 72 72 72 69 69 68 68 68 70 69 70 70 71 70 70 70 69 69 69 67 67 69 70 70 70 71 71 70 70 70
68 69 71 71 71 71 72 72 72 72 71 70 70 71 71 72 71 68 68 69 67 67 69 72 70 70 70 69 71 69 69 69 69 71 74 71 70 72 70 71 72 70 71
67 68 70 71 72 72 73 73 73 71 70 71 70 71 72 72 72 69 67 70 66 65 65 64 65 67 68 68 68 70 71 72 73 73 73 73 73 73 74 75 72 71 71
68 68 70 72 70 70 73 73 72 72 72 72 71 70 70 71 71 69 67 68 69 67 66 64 69 69 68 67 67 69 69 69 71 71 72 72 72 73 73 74 75 75 74
68 70 70 71 71 71 72 72 72 72 70 70 69 69 68 68 71 69 66 66 67 69 70 70 70 70 69 69 68 68 67 70 70 69 69 70 71 71 73 72 72 72 69
69 70 70 71 71 70 71 71 70 69 69 68 68 67 67 68 69 71 71 67 65 67 69 70 71 71 71 72 73 72 70 69 69 69 69 70 72 71 69 67 61 60 59
70 70 70 70 71 71 70 67 69 69 68 68 67 68 68 68 69 71 71 72 71 70 71 71 71 71 72 73 73 72 72 70 68 68 69 70 68 66 62 60 60 59 58
68 68 68 67 69 70 70 68 59 59 59 65 68 70 69 68 70 71 72 73 72 69 70 72 72 72 71 71 70 69 69 68 68 67 66 64 62 59 59 59 59 59 58
70 69 66 66 68 69 69 69 67 67 61 61 62 66 70 68 67 67 68 67 68 70 72 71 70 69 66 66 65 65 65 65 65 62 61 61 60 60 59 59 59 59 58
69 71 70 68 68 68 64 62 62 63 67 69 58 59 61 64 63 65 66 67 67 67 66 65 64 63 63 63 62 62 62 63 63 63 62 61 60 60 59 59 59 60 58
67 65 64 65 64 65 61 59 57 62 68 62 59 57 55 56 59 61 62 68 68 66 65 64 64 63 62 62 62 62 62 62 61 61 61 61 61 61 60 60 60 59 58
65 65 65 68 68 68 68 67 67 67 64 62 62 61 60 60 62 63 64 63 62 61 61 59 59 58 58 59 59 59 59 60 61 61 61 62 61 61 61 60 60 60 59
64 65 64 64 64 65 66 67 67 65 63 60 60 59 60 61 60 60 59 58 57 56 56 56 56 56 56 56 56 56 55 56 56 57 57 58 59 59 61 61 61 60 60
62 63 64 63 62 61 60 61 59 59 57 56 56 56 55 57 56 55 53 53 52 53 53 53 52 52 52 53 53 53 53 53 54 54 54 55 56 57 59 60 61 61 60
60 61 61 60 60 58 58 57 57 56 55 54 54 55 54 53 51 51 49 50 50 50 50 50 49 49 50 50 50 49 48 47 48 50 51 52 53 54 55 57 59 60 59
60 59 59 59 58 57 56 54 53 52 52 51 51 52 51 51 49 49 48 48 48 48 48 48 47 47 45 43 42 41 40 42 44 47 50 51 52 53 53 53 56 58 58
57 57 55 54 54 53 51 50 50 49 48 48 48 47 47 47 47 47 46 46 46 44 42 39 37 36 33 31 29 27 30 30 37 37 46 51 51 52 51 51 51 52 54
56 55 54 51 50 49 48 47 46 44 43 42 42 41 40 39 39 40 39 38 37 35 34 31 31 30 27 25 26 26 27 28 30 28 34 45 46 47 48 49 49 50 52

GFSGL_sfc_30mbdewp_051.txt.gz
Dewpoint
69 69 67 68 69 70 69 70 70 68 69 69 68 68 68 68 70 72 71 68 69 70 69 67 69 71 66 62 62 61 60 60 58 57 56 58 64 67 67 67 66 66 64
67 69 69 68 68 68 69 70 71 71 70 70 70 69 68 68 70 71 70 66 68 69 69 69 68 68 71 71 68 67 63 64 62 63 63 63 66 66 67 69 66 65 65
67 67 68 67 68 67 69 70 71 71 72 69 71 71 70 69 70 71 71 70 69 68 69 69 69 70 71 69 69 66 64 67 67 67 66 65 64 63 64 68 69 68 67
63 64 67 68 68 68 68 70 71 72 72 72 72 72 71 70 69 69 70 71 70 69 70 70 70 70 71 72 71 72 71 70 67 66 64 64 63 62 62 63 64 64 65
63 63 66 68 68 69 68 70 71 72 73 73 73 72 72 69 67 69 70 70 71 70 70 70 70 71 70 72 70 71 71 70 67 65 63 61 60 61 64 65 65 66 66
64 64 65 68 69 69 69 71 72 72 73 73 73 72 71 68 65 65 68 68 70 70 71 71 71 71 70 70 71 71 72 72 73 69 65 64 67 68 66 66 66 66 67
65 65 66 69 70 70 70 71 72 72 73 73 73 73 72 72 66 64 64 66 68 69 70 71 70 66 70 71 71 70 70 70 70 72 71 71 70 71 72 72 70 71 72
66 68 67 70 71 71 72 72 73 73 73 73 73 73 73 73 70 66 64 68 67 68 70 71 71 70 70 70 70 70 71 73 73 72 72 73 73 74 74 73 74 74 73
68 68 69 70 71 72 72 72 73 73 73 73 74 74 74 73 70 68 66 68 67 69 70 70 70 71 72 70 70 70 70 71 67 66 66 68 69 69 68 70 71 71 70
68 69 70 71 72 72 73 73 74 74 73 72 73 74 74 74 73 68 68 68 67 68 70 72 71 70 71 70 71 71 71 72 71 70 71 71 71 71 69 70 72 72 72
68 70 71 72 73 73 74 74 74 74 71 73 72 73 73 73 74 69 66 71 67 65 65 63 64 67 68 67 67 71 71 72 71 72 73 74 73 74 74 75 75 74 73
69 70 71 73 72 72 74 74 74 74 73 73 73 73 71 74 73 69 67 68 70 68 64 59 60 61 62 65 66 68 69 69 70 71 71 71 72 72 73 74 75 75 75
70 70 71 73 73 72 74 74 73 74 70 71 70 69 67 68 71 70 67 67 68 70 68 65 69 69 67 65 66 68 68 71 71 72 72 73 72 73 74 73 74 74 74
71 71 72 72 73 72 72 72 70 69 70 67 67 66 65 63 62 66 69 66 66 68 70 70 69 70 71 72 73 68 71 72 73 72 70 71 72 72 72 72 70 65 60
71 71 71 71 71 72 71 69 69 67 67 67 63 62 59 60 61 63 66 71 70 70 70 70 69 70 70 71 73 74 75 73 71 70 70 71 70 71 71 69 61 60 59
70 70 70 68 70 71 68 67 63 65 65 65 64 68 70 67 67 67 70 70 70 69 70 69 70 71 71 72 73 73 71 71 70 70 70 70 68 65 62 60 60 59 59
70 70 68 67 70 70 70 68 68 65 60 61 65 65 65 67 66 68 68 69 69 69 71 70 72 73 72 71 70 69 69 69 68 67 66 64 63 61 60 60 59 59 59
70 68 67 70 70 71 71 70 69 68 66 65 60 62 62 63 67 68 68 70 71 72 73 71 69 67 66 65 64 65 65 66 65 65 64 62 60 60 60 60 60 60 60
70 68 67 69 69 69 69 67 65 65 64 64 64 62 61 59 58 63 65 72 71 69 67 67 66 65 65 65 64 64 64 63 63 62 62 61 62 61 61 60 60 60 60
67 66 67 65 64 64 65 65 65 63 63 64 63 63 62 63 65 66 67 67 68 69 67 65 64 63 62 62 61 61 61 61 61 61 61 61 61 61 61 60 61 60 60
66 65 66 67 66 64 59 61 68 65 65 63 62 62 62 63 64 65 64 64 63 63 62 61 60 60 59 59 59 58 58 58 58 58 58 58 59 59 59 59 59 60 59
63 64 63 63 64 64 65 66 64 62 61 60 59 59 61 63 62 61 60 60 59 59 59 58 57 56 56 56 56 55 54 54 54 54 54 54 55 55 55 57 58 59 59
61 61 61 61 60 60 61 62 60 60 59 58 59 59 59 58 57 56 55 54 54 54 54 53 52 52 53 52 51 49 48 47 48 50 51 52 52 52 53 54 55 57 58
60 60 60 59 59 58 56 55 55 55 55 55 56 56 54 53 52 52 51 52 51 51 51 51 51 50 47 42 39 35 33 37 44 45 48 50 49 49 50 51 52 53 53
57 58 57 57 55 55 53 52 51 51 51 50 50 51 51 51 52 51 51 50 49 48 45 42 39 36 33 30 27 26 29 28 36 30 41 46 46 47 45 46 48 50 51
56 55 54 53 52 51 50 48 46 45 44 45 45 46 45 45 45 44 45 43 42 39 37 36 34 31 28 25 27 27 27 27 29 27 30 32 36 38 40 41 43 44 44

GFSGL_sfc_30mbdewp_054.txt.gz
Dewpoint
71 70 69 69 68 67 68 64 70 68 71 69 71 71 72 71 72 72 71 71 72 71 72 71 71 70 70 71 68 65 64 65 63 63 66 65 68 68 67 67 68 68 68
71 70 69 69 68 67 65 70 69 72 71 73 71 72 70 71 72 72 72 69 70 71 71 70 71 72 71 71 71 70 70 70 68 66 68 66 66 68 69 71 71 67 67
70 69 69 69 69 69 68 67 71 70 72 71 73 72 72 71 71 72 73 72 71 72 72 72 71 71 71 72 72 70 68 69 69 68 69 71 70 69 68 71 72 71 69
68 69 69 69 69 68 70 68 70 72 71 72 72 73 73 72 71 72 73 73 72 71 72 71 72 72 72 72 72 72 72 71 71 70 69 68 69 68 70 68 68 70 69
65 67 69 70 69 69 69 70 69 70 72 73 73 73 73 72 71 71 71 73 72 72 72 72 72 73 72 73 73 73 73 72 72 71 70 68 67 68 68 69 69 70 69
64 66 68 69 70 70 69 70 71 70 72 73 73 73 73 72 70 68 70 70 72 72 72 72 73 71 70 69 69 70 71 72 72 73 72 70 70 70 70 69 69 69 68
65 66 67 69 70 70 70 69 71 71 71 72 73 73 73 73 69 66 67 69 70 72 73 72 72 70 70 72 70 68 69 69 70 71 70 70 70 71 72 72 72 72 72
65 67 67 69 69 71 70 71 70 71 71 72 73 73 74 74 71 66 65 68 69 71 71 71 72 72 71 73 73 73 72 72 72 70 70 71 73 74 74 74 73 73 73
66 67 68 68 69 70 70 70 70 71 72 72 73 74 74 74 72 69 66 67 68 68 69 70 72 73 72 70 69 69 70 71 72 72 73 73 73 72 72 71 69 68 71
66 67 69 68 70 70 70 71 71 72 72 72 72 73 74 74 73 70 67 69 68 68 70 71 70 69 69 69 71 72 71 71 72 72 72 72 72 72 70 68 70 71 72
67 67 69 70 69 71 72 72 72 73 72 73 72 73 74 74 74 70 67 70 69 69 69 69 71 70 69 68 68 71 71 72 73 72 72 72 74 74 74 75 75 74 73
69 68 71 71 70 71 73 73 73 73 73 73 73 73 73 75 73 71 68 67 71 70 69 68 68 66 67 67 66 67 68 69 71 71 71 71 72 73 74 74 75 75 75
70 70 70 72 72 71 73 73 74 74 73 73 72 73 72 73 74 72 69 67 68 71 71 70 67 68 65 62 62 66 66 68 70 71 71 72 74 74 73 74 75 74 75
69 71 71 72 72 72 73 74 74 73 73 72 71 71 72 71 72 73 70 67 67 67 70 71 70 70 71 71 69 65 69 72 72 72 73 74 73 72 72 73 72 72 68
71 71 71 72 72 73 72 73 73 73 73 72 71 70 70 70 69 68 71 70 70 69 71 71 71 70 70 71 73 74 72 73 73 73 72 71 71 72 71 73 72 69 62
71 71 71 71 72 73 72 69 61 66 65 67 68 70 68 67 64 62 61 68 69 69 70 71 71 70 70 70 71 73 74 74 72 71 71 71 70 70 70 67 64 61 61
71 71 70 70 71 72 71 69 66 62 57 60 64 68 69 69 67 65 63 63 67 68 71 70 70 71 72 73 73 72 71 71 71 71 71 69 68 67 63 62 62 63 62
72 70 70 70 70 71 71 70 68 66 67 66 61 63 64 67 68 70 69 69 69 70 72 72 72 72 71 70 69 68 68 69 69 67 65 64 63 63 63 63 62 62 62
68 69 70 71 71 71 71 70 70 69 71 69 65 63 60 58 61 65 68 72 72 72 71 70 69 67 66 66 66 66 65 64 64 64 63 62 63 63 62 62 61 61 60
67 67 68 70 70 70 71 70 69 68 67 65 66 65 63 65 67 67 67 67 68 70 68 67 67 66 66 65 65 64 62 62 62 62 62 62 62 62 62 61 61 61 61
66 66 67 67 67 67 68 68 67 65 65 65 65 65 65 67 67 66 65 63 62 63 66 65 64 63 62 62 61 61 60 60 60 59 59 60 60 59 59 59 59 59 60
65 64 64 63 65 65 65 66 64 64 63 62 62 62 62 66 63 62 62 61 61 62 63 63 60 59 59 58 58 57 57 56 55 55 55 55 56 56 56 58 57 56 57
64 62 61 60 60 59 59 59 61 61 61 62 62 61 60 59 58 58 58 58 58 57 56 55 54 54 53 47 42 41 44 46 48 50 51 51 52 53 53 53 54 53 55
61 61 61 60 57 56 55 54 54 54 54 54 55 54 54 54 54 54 54 53 53 53 49 45 39 35 34 31 30 26 29 33 40 40 43 47 49 49 49 49 49 50 52
57 56 55 58 57 55 54 53 52 52 51 52 52 52 53 53 53 52 51 52 50 45 42 39 35 32 29 27 27 29 28 28 32 29 34 39 44 44 44 44 44 45 46
51 53 51 49 48 49 48 47 46 46 46 47 46 44 46 45 42 44 48 45 43 43 39 36 32 29 26 27 28 27 27 28 29 29 31 35 33 32 28 28 30 39 38

GFSGL_sfc_30mbdewp_057.txt.gz
Dewpoint
67 69 67 66 69 70 66 64 67 66 72 72 72 73 73 72 72 71 71 71 70 70 71 70 70 70 69 70 71 70 67 65 62 63 67 68 67 66 67 66 66 66 67
68 68 69 67 67 68 68 65 63 67 68 72 72 72 71 71 72 72 71 71 70 70 71 70 70 72 70 69 71 69 69 70 68 64 66 65 66 68 68 68 69 70 69
69 68 69 68 66 67 65 68 65 67 67 70 72 72 72 71 70 72 71 71 71 71 71 71 70 69 71 72 70 70 70 70 71 70 69 70 70 70 69 69 70 71 71
69 70 68 68 68 65 65 64 70 67 72 71 72 71 71 70 71 71 72 72 72 71 72 71 71 71 70 71 72 71 71 70 69 69 69 69 69 70 70 69 69 70 70
68 69 69 69 68 68 66 66 62 71 67 71 71 73 72 72 71 71 72 72 72 71 71 71 72 72 72 72 72 72 72 72 71 71 70 71 70 69 69 70 69 68 70
68 69 69 69 68 68 68 69 67 65 71 69 70 71 73 72 71 70 71 72 73 72 71 72 72 72 71 71 72 73 73 72 72 72 71 70 70 70 70 69 69 70 69
64 68 69 69 69 68 69 68 70 66 67 72 71 72 72 73 71 70 69 70 70 72 72 72 72 71 71 72 70 69 68 68 69 70 69 69 69 70 70 70 70 71 71
64 66 68 69 69 70 69 68 69 70 68 68 71 72 72 72 72 70 69 69 70 70 73 73 72 71 71 71 71 71 70 69 69 69 69 70 71 71 71 71 72 73 73
65 65 68 68 69 70 69 69 68 70 70 69 71 72 72 73 72 71 68 66 68 69 71 71 72 72 72 71 70 71 71 73 74 72 72 71 70 70 71 72 72 71 68
64 66 67 68 69 69 70 69 70 69 69 71 70 71 73 73 72 71 69 69 66 67 69 70 71 72 72 71 70 69 68 68 70 70 71 70 70 70 69 68 70 69 70
66 66 69 68 68 69 70 70 69 70 69 69 71 71 72 73 73 71 69 70 69 67 67 68 70 69 67 66 66 69 70 71 71 72 72 72 72 73 74 72 71 72 71
69 68 67 69 68 70 70 70 70 70 70 70 71 71 71 73 73 71 69 68 70 69 68 68 68 69 68 67 66 66 67 67 71 71 71 70 70 71 73 74 74 74 75
69 69 70 71 68 70 70 70 70 70 70 70 71 71 71 72 73 72 70 68 67 70 70 69 69 68 66 65 65 65 65 66 68 69 69 70 71 73 73 73 73 74 74
70 71 69 71 70 68 72 71 71 71 71 71 71 71 71 72 72 74 70 67 66 66 70 70 68 68 68 70 67 61 64 67 67 68 70 72 73 72 72 72 72 71 71
70 71 71 70 71 70 71 72 72 72 72 72 71 72 71 71 72 72 73 71 70 69 69 70 69 69 69 70 71 69 66 69 70 72 73 73 72 71 71 72 72 71 68
69 70 71 69 72 72 71 68 61 65 68 71 72 72 72 70 71 70 69 70 70 68 69 70 70 70 70 70 70 72 71 70 72 73 72 71 71 70 70 70 70 61 60
67 71 71 70 71 72 71 70 69 62 59 61 65 70 69 69 65 65 64 67 66 66 70 70 70 71 71 70 69 71 73 73 73 72 71 70 70 70 68 64 62 62 63
66 69 72 71 70 72 72 71 70 67 68 67 60 63 64 65 64 64 61 60 64 69 70 70 70 71 71 71 71 71 71 71 70 70 69 67 64 64 63 62 61 61 60
64 68 70 71 71 72 72 71 68 68 68 68 63 61 60 61 65 68 69 68 69 70 70 68 68 67 67 67 66 67 67 66 67 64 63 63 63 62 62 62 61 60 60
62 67 68 70 70 71 72 71 68 69 69 66 66 65 63 65 69 69 69 70 70 68 67 66 66 66 66 66 65 64 63 64 63 62 62 62 61 61 60 60 60 60 60
61 65 66 68 69 69 69 69 70 70 68 67 65 64 65 68 67 67 66 64 67 67 66 66 65 65 64 63 63 63 62 61 61 60 59 59 60 59 59 59 58 58 57
62 62 62 62 62 63 65 65 64 63 63 62 62 62 64 66 63 62 61 62 63 65 65 65 64 63 61 61 61 62 61 56 53 54 54 54 55 55 57 58 55 54 55
62 60 59 58 58 59 59 62 62 63 62 61 61 59 58 58 58 58 57 57 56 56 55 56 49 46 45 44 45 46 47 45 45 46 49 49 50 53 52 54 53 53 53
60 57 56 55 54 54 54 54 54 56 57 56 56 55 55 55 55 54 53 51 47 43 41 39 38 39 38 34 32 32 35 36 33 34 38 41 46 45 48 48 49 51 53
50 49 52 52 51 50 49 49 50 50 51 52 52 52 52 52 53 53 51 48 45 42 39 35 34 33 32 29 29 29 29 29 30 30 31 36 37 29 29 29 30 35 41
43 43 43 43 42 44 44 43 42 43 44 44 44 43 43 43 44 46 47 44 41 38 35 33 31 32 32 31 29 29 29 30 31 32 32 36 32 28 28 28 28 31 31

GFSGL_sfc_30mbdewp_060.txt.gz
Dewpoint
67 66 64 65 67 69 65 65 66 67 68 69 71 71 70 71 71 72 70 69 70 69 70 69 69 70 69 69 70 70 69 66 62 63 65 67 67 66 68 68 68 66 66
68 67 66 64 65 68 69 65 65 66 69 70 72 71 71 71 71 70 70 70 70 69 69 70 70 71 70 70 70 69 68 69 67 65 66 67 68 69 69 69 70 71 71
66 67 67 66 64 65 67 68 65 64 67 72 72 72 71 71 72 71 71 70 70 70 70 70 70 69 69 70 70 70 70 70 70 70 69 70 70 69 69 69 69 70 71
65 66 67 68 65 64 65 67 68 65 63 68 72 71 71 71 71 71 71 71 70 70 71 71 71 71 70 69 70 70 71 70 70 69 68 69 70 70 70 69 69 69 68
66 66 66 67 68 66 64 66 66 68 66 66 69 71 71 71 70 70 70 70 70 70 71 71 71 71 71 71 71 70 70 70 70 70 70 70 71 71 70 70 69 68 69
67 67 68 67 68 68 66 64 65 64 68 67 70 70 71 71 70 70 70 70 71 70 70 71 71 71 71 71 71 71 71 70 70 70 70 71 71 70 69 69 68 68 68
67 68 68 69 68 68 68 66 65 64 62 67 67 71 71 71 70 69 69 70 71 71 71 71 71 72 71 71 71 70 69 71 72 71 70 70 69 69 69 69 69 69 69
65 68 69 69 69 69 68 68 67 67 64 62 68 68 69 72 71 69 69 70 70 70 72 72 72 71 71 71 71 70 71 70 69 68 68 69 69 70 70 70 70 71 72
63 63 67 69 69 69 68 68 68 69 68 64 66 71 70 69 70 70 69 70 70 69 70 71 72 71 71 70 70 70 70 71 73 71 69 69 69 69 69 71 70 70 70
61 63 63 66 69 69 69 68 68 68 68 69 67 67 70 71 71 69 69 70 69 69 69 70 70 71 71 71 71 70 69 69 69 69 70 69 69 69 69 68 70 70 70
63 63 63 64 67 69 69 69 69 69 68 69 69 68 69 71 71 69 68 71 70 69 68 68 69 69 69 68 68 70 70 70 70 70 71 71 72 72 73 72 70 70 70
61 62 62 64 66 68 69 69 69 69 68 68 69 70 69 70 71 70 69 68 71 70 69 68 67 67 67 67 66 67 67 66 67 69 69 70 70 71 70 72 74 73 73
68 69 67 69 68 67 68 69 69 69 69 69 67 68 69 70 71 71 69 68 68 71 71 69 68 67 66 66 66 65 64 64 66 67 68 69 70 70 72 73 73 73 74
64 67 70 70 70 69 68 70 69 69 68 68 69 68 69 70 71 72 70 67 67 67 70 70 69 68 68 67 66 65 63 65 66 67 68 69 70 71 72 72 72 72 71
61 64 68 71 69 70 69 70 69 70 69 68 68 69 69 69 70 71 72 71 71 70 69 70 68 68 68 68 68 68 66 65 65 67 68 69 70 72 72 72 71 71 70
59 62 68 71 70 71 69 68 62 64 67 68 68 70 70 70 71 70 70 71 70 69 68 69 69 69 69 69 69 69 69 68 68 69 71 71 71 71 71 70 70 70 65
56 59 63 68 71 70 70 69 69 63 61 63 66 68 70 71 69 69 69 68 68 65 71 70 70 70 70 70 70 70 70 71 70 71 72 71 71 70 69 69 66 62 62
55 57 60 65 71 70 71 71 70 70 69 69 62 67 67 67 69 68 65 62 64 64 70 70 70 70 70 70 70 70 70 71 70 69 69 68 67 65 63 63 63 62 60
54 56 62 66 69 71 72 72 71 69 70 70 63 61 60 62 63 62 61 68 67 67 69 70 70 70 69 69 68 67 67 67 66 64 64 64 64 63 62 61 60 60 59
54 55 58 64 68 70 72 72 70 69 69 67 67 67 62 63 67 65 63 67 66 68 69 69 69 68 67 66 65 65 64 64 63 62 64 64 64 63 62 61 60 60 60
53 55 62 64 67 69 70 69 69 69 68 67 66 65 64 68 67 66 65 67 69 68 68 67 66 66 66 65 65 65 64 64 64 63 62 62 61 60 60 60 59 58 57
54 56 61 62 64 67 67 68 67 66 64 62 62 63 63 63 62 62 62 62 63 64 64 62 59 56 57 59 62 61 59 58 58 59 58 58 58 58 58 59 56 55 55
56 59 57 57 59 61 63 64 64 63 62 62 62 62 62 61 59 58 57 55 53 52 52 50 48 46 44 44 45 48 49 48 47 51 50 50 49 53 55 56 54 53 53
56 55 53 52 53 54 56 56 57 59 59 59 59 58 58 57 55 51 48 44 42 41 41 40 38 37 36 36 36 35 33 34 36 38 43 43 42 46 48 47 46 51 52
46 45 46 47 46 45 46 49 50 51 51 52 52 52 53 53 51 47 43 41 39 36 34 31 31 32 32 31 30 31 31 33 33 33 36 34 30 29 29 29 29 33 38
42 41 42 43 42 43 43 42 43 44 43 44 44 45 45 46 47 44 42 40 36 34 34 34 35 34 33 32 32 31 31 32 34 34 35 31 29 29 29 28 31 30 28

GFSGL_sfc_30mbdewp_063.txt.gz
Dewpoint
65 65 64 65 68 67 65 65 66 69 69 69 70 71 70 70 71 70 70 69 69 69 69 70 69 69 69 69 69 69 68 65 63 64 64 67 67 67 69 69 70 70 70
65 64 64 64 65 67 67 66 65 65 67 68 69 70 70 70 70 70 70 70 69 69 69 69 69 69 70 70 69 68 68 68 67 65 66 68 68 69 69 70 70 70 71
65 65 64 64 64 64 67 68 66 65 65 67 69 70 70 70 70 70 70 70 70 70 70 69 69 69 69 69 70 69 69 70 69 69 69 69 69 69 70 70 70 70 70
65 66 65 65 64 64 64 66 68 66 65 65 69 71 71 71 71 71 70 70 70 70 70 70 70 70 69 69 69 70 70 70 70 69 68 68 69 70 70 70 69 69 69
63 65 66 66 65 64 63 64 66 67 66 65 66 71 71 71 71 71 71 71 70 70 70 70 70 71 71 70 70 69 69 69 69 69 69 69 69 69 69 70 69 68 69
64 64 66 66 67 65 64 63 64 66 67 66 65 66 70 71 70 70 70 70 71 70 69 70 70 70 70 70 70 71 71 70 69 69 69 69 69 70 69 68 68 68 68
65 65 66 66 66 67 66 64 63 64 64 65 66 67 67 69 70 69 69 69 69 70 69 69 70 71 71 71 70 69 69 69 70 71 70 70 70 70 69 68 68 68 68
67 66 66 67 66 67 68 67 65 64 64 63 63 66 68 68 69 68 68 69 69 70 70 70 70 70 71 71 71 71 71 70 69 69 70 71 71 70 69 69 69 70 71
63 66 67 68 68 67 68 68 67 65 65 64 63 63 65 67 68 69 68 68 69 69 70 70 71 71 71 70 71 70 70 70 71 70 69 69 69 68 68 70 69 69 69
64 64 64 67 69 69 68 68 68 68 67 66 65 63 64 66 66 68 68 69 69 69 70 70 69 70 70 70 70 70 69 70 70 70 69 69 68 68 67 68 70 69 70
64 64 63 63 64 69 70 70 68 68 68 68 68 67 65 68 68 66 66 69 68 68 69 68 69 68 68 68 68 70 70 70 69 69 69 69 70 71 71 70 69 70 70
68 65 63 63 64 65 66 70 69 69 68 68 68 68 68 67 67 68 67 67 69 69 68 68 68 68 67 66 66 67 68 68 68 69 69 69 69 69 70 71 72 71 71
63 64 66 68 64 64 65 67 69 69 68 68 67 67 68 69 69 67 66 66 67 70 70 69 69 67 66 64 64 66 65 65 67 66 66 66 68 69 70 71 73 74 73
60 62 63 64 67 70 69 68 67 68 68 68 68 67 67 69 69 70 68 65 65 66 69 70 70 68 67 67 66 64 63 64 65 65 66 67 69 69 70 71 71 72 71
58 59 61 63 66 70 71 69 68 68 69 68 68 68 68 67 68 70 70 70 69 69 69 70 70 69 69 67 67 67 66 65 65 66 66 66 67 68 69 72 72 71 70
56 58 59 60 63 66 70 69 65 67 67 67 68 69 69 68 69 68 68 69 69 69 68 70 69 69 70 69 69 68 68 66 66 66 66 67 67 69 70 70 70 70 69
53 56 57 59 61 63 68 71 68 65 62 64 64 66 66 69 67 67 67 67 67 66 70 70 70 69 69 69 69 69 69 69 68 68 68 69 70 70 70 69 68 66 64
52 54 55 56 58 62 66 70 71 68 68 68 65 64 63 65 66 67 66 62 64 62 70 71 70 70 70 70 70 70 70 71 70 70 70 70 70 69 67 67 67 64 62
51 53 55 57 59 62 65 68 71 70 69 69 67 62 62 62 62 62 59 69 69 68 67 70 70 71 71 71 70 70 70 70 71 70 69 69 68 66 64 63 63 62 60
51 52 54 55 56 60 63 67 70 71 70 70 69 68 62 61 65 66 63 66 70 70 70 69 70 70 70 70 69 69 69 68 68 67 65 64 64 64 63 61 61 60 59
51 52 54 55 56 60 63 67 70 70 70 70 69 68 65 66 68 69 67 66 67 67 67 68 69 68 67 67 66 66 66 65 64 63 63 63 63 63 62 61 61 60 60
52 52 54 55 58 62 64 67 69 69 69 68 66 64 64 66 67 65 64 64 64 63 64 63 60 60 61 63 64 64 63 63 62 62 61 61 61 61 60 60 59 58 57
50 54 55 57 59 60 63 66 67 68 67 65 64 63 63 62 61 59 57 55 54 53 53 53 52 50 50 52 53 57 59 58 56 57 57 57 57 58 59 58 57 55 54
47 50 53 52 52 53 56 58 60 63 64 63 63 62 59 56 52 49 48 47 45 43 43 42 42 43 43 41 40 41 41 42 45 48 49 49 52 54 56 55 53 52 52
43 44 44 46 45 45 46 47 48 48 50 54 54 53 49 46 44 42 40 39 37 38 36 35 34 34 34 33 32 32 32 33 38 41 40 40 39 38 36 35 40 42 41
40 40 40 42 42 43 42 42 43 44 45 46 47 47 45 42 41 40 39 37 36 36 36 35 35 35 35 34 33 33 32 34 35 33 33 34 33 31 32 33 32 30 30

GFSGL_sfc_30mbdewp_066.txt.gz
Dewpoint
65 65 65 65 65 65 65 66 67 68 69 69 70 70 70 70 71 70 70 69 69 69 69 70 70 70 69 70 70 70 68 65 65 66 65 68 69 70 70 72 72 72 72
65 65 65 66 67 65 64 65 66 67 69 70 70 70 70 70 70 70 70 70 69 69 69 69 69 70 69 70 70 69 69 69 67 66 67 69 70 70 71 72 72 72 71
64 64 65 65 65 67 66 66 65 65 66 67 69 69 70 70 71 71 70 70 70 70 69 69 69 69 69 70 70 70 70 70 69 69 70 70 70 70 71 72 72 71 71
65 64 64 64 64 65 66 67 66 66 65 65 67 68 69 70 71 71 70 70 70 70 70 70 70 70 69 69 69 69 70 70 70 70 69 69 70 71 71 70 70 71 70
64 65 64 65 64 64 64 66 67 66 66 66 66 68 69 70 70 71 71 70 70 69 70 70 71 71 70 70 70 70 70 69 69 69 69 69 70 70 70 71 70 69 70
64 64 66 66 66 65 64 64 65 67 66 66 65 66 67 69 70 70 71 71 71 70 69 70 71 70 70 70 69 70 71 71 70 70 70 69 70 70 71 70 69 68 69
63 64 65 66 66 66 66 65 64 65 66 66 65 65 66 68 68 69 69 71 70 70 70 70 70 70 70 71 70 69 68 69 70 71 70 71 70 71 71 70 69 69 69
64 65 66 66 66 67 67 66 65 64 64 66 66 66 65 66 67 67 68 70 70 70 70 70 70 70 70 70 70 70 71 71 70 69 70 71 72 72 72 71 70 70 71
65 65 67 66 66 67 67 67 66 65 64 64 65 65 66 66 65 66 66 68 68 69 70 70 70 70 70 69 70 70 70 71 71 70 70 70 69 69 69 70 69 70 69
65 66 65 66 68 67 67 67 68 67 66 65 65 65 65 65 65 65 65 67 66 67 69 70 69 70 70 69 70 70 70 69 70 70 71 70 68 69 67 68 70 70 70
66 66 65 64 64 69 69 68 69 68 68 67 66 66 65 64 65 64 64 68 66 66 66 67 70 68 68 68 68 70 70 70 70 70 70 70 70 70 71 69 69 71 71
63 64 64 66 65 65 67 70 70 69 68 68 68 67 67 66 64 63 63 64 68 67 66 67 68 67 67 66 65 67 68 68 70 70 69 69 69 70 70 71 72 71 73
61 61 62 63 66 66 65 66 70 70 69 68 68 68 68 69 67 64 64 63 65 68 68 67 67 67 66 65 64 65 65 65 67 68 68 68 69 69 70 71 72 73 73
59 59 61 61 62 64 67 66 66 68 69 69 68 68 68 68 69 69 65 64 64 64 67 69 69 68 67 68 66 64 64 66 66 67 67 68 68 69 69 71 70 72 72
57 58 60 61 61 62 66 68 68 66 67 68 68 69 68 68 68 70 69 67 66 67 68 69 69 69 69 69 68 68 67 66 66 66 67 67 68 69 69 70 71 72 71
55 56 58 59 60 61 62 64 68 68 67 64 68 69 69 69 68 67 67 67 67 66 67 68 68 69 68 68 69 69 69 67 67 68 67 68 68 68 68 70 71 71 71
53 53 55 56 58 59 60 62 63 67 65 65 64 63 67 69 67 66 66 65 66 64 69 69 69 69 69 68 69 69 70 70 69 68 68 68 68 68 69 70 70 70 70
51 51 52 54 56 58 60 61 64 65 68 69 65 65 63 63 65 65 64 61 64 60 69 70 70 70 70 70 69 69 70 70 70 69 69 69 69 69 69 69 70 69 69
48 50 51 52 54 57 59 60 61 62 65 69 69 63 62 61 60 61 59 68 68 68 66 69 71 71 71 70 70 70 71 70 70 70 70 70 70 70 70 70 69 67 65
48 50 51 51 53 55 57 58 60 62 64 68 70 70 62 60 62 63 61 65 69 70 70 69 70 71 71 71 71 71 71 70 70 70 70 70 68 67 66 64 64 64 63
48 48 50 51 52 54 56 58 59 61 63 67 68 71 67 67 67 67 67 65 67 69 71 71 70 70 71 71 71 70 70 70 69 68 67 65 65 64 64 63 63 63 62
48 49 49 50 52 54 55 58 60 61 63 65 68 70 65 67 69 69 70 69 68 68 69 69 69 69 69 69 69 68 67 66 65 64 64 63 63 63 64 63 63 62 61
49 49 49 50 51 53 54 57 61 61 63 65 68 68 63 65 65 62 58 55 53 52 52 55 56 55 53 56 61 65 64 63 63 63 62 63 63 62 62 61 60 59 58
47 48 48 50 53 53 54 57 59 61 63 65 66 65 63 59 54 50 47 45 45 43 43 42 41 41 42 42 42 42 44 50 55 58 60 60 60 59 60 59 58 57 55
43 43 44 44 45 45 45 47 49 52 55 58 57 53 49 47 44 43 42 42 41 40 40 39 39 39 40 39 37 36 36 36 39 42 47 52 53 54 55 55 54 53 52
41 40 40 40 40 42 42 42 43 45 47 47 45 43 42 41 41 40 39 38 38 38 38 38 39 39 38 37 37 36 35 36 36 38 41 41 41 40 38 39 39 39 37

GFSGL_sfc_30mbdewp_069.txt.gz
Dewpoint
66 66 66 66 67 68 67 68 69 70 70 71 71 71 71 72 72 72 71 70 70 70 70 70 70 72 67 68 69 69 68 67 64 64 68 69 72 71 71 72 71 71 67
66 67 66 66 67 66 67 67 69 70 70 71 71 71 72 71 72 72 71 70 70 70 70 70 69 70 72 71 70 71 69 70 68 66 68 68 70 72 72 73 71 68 71
66 66 66 66 66 66 66 67 67 68 69 69 71 72 72 71 72 72 71 71 71 70 70 70 70 70 71 69 71 70 69 71 71 69 68 69 70 70 70 69 71 72 69
64 65 65 66 67 66 68 67 67 68 68 68 69 70 71 72 72 71 72 71 71 71 71 70 70 70 71 71 71 71 71 70 69 70 68 68 68 70 71 69 67 68 69
64 64 64 66 66 66 67 68 68 68 67 68 68 68 69 69 69 71 71 71 71 71 71 71 71 71 71 71 69 69 70 71 69 68 67 66 66 66 66 68 68 69 69
65 65 65 66 67 67 67 67 68 68 68 68 67 67 67 66 65 68 70 70 71 71 70 71 71 71 71 70 69 69 70 70 70 69 66 66 68 69 68 68 68 68 65
66 65 65 66 67 68 67 67 67 68 68 68 67 67 67 68 66 67 69 67 70 71 71 71 70 68 71 71 70 69 68 68 69 70 69 68 68 69 70 70 69 70 68
67 65 65 66 67 68 68 67 68 67 67 68 67 68 68 68 67 66 68 68 69 69 70 71 71 70 70 70 70 70 70 70 71 70 70 71 71 72 72 72 72 72 71
64 66 67 66 66 67 67 68 68 67 67 67 67 68 68 68 65 65 66 67 66 69 70 70 71 71 71 70 70 69 69 70 69 71 71 71 71 70 70 71 69 67 64
58 63 65 68 67 68 68 68 68 69 68 67 66 67 68 68 67 64 64 64 64 65 68 70 69 69 70 69 70 69 69 68 68 68 70 70 69 70 67 70 69 67 65
54 63 63 64 67 66 67 70 69 69 69 68 68 67 68 68 68 65 63 66 65 65 64 63 64 67 68 67 68 70 70 69 67 69 69 69 69 70 71 71 70 69 66
55 60 59 63 63 65 67 66 70 70 70 69 69 69 68 69 67 66 63 63 66 66 66 65 65 65 65 65 65 68 69 69 68 65 64 66 66 67 67 69 72 73 71
52 58 58 59 62 63 66 67 67 69 70 70 69 68 68 69 69 65 63 62 62 66 67 67 66 65 64 65 64 66 65 67 67 66 64 64 65 66 69 70 71 72 73
49 54 57 57 60 62 63 64 65 65 68 70 69 69 69 69 69 69 67 63 61 62 65 67 68 67 67 67 67 64 66 68 67 66 64 64 66 68 68 69 68 68 69
49 53 56 56 58 60 61 62 65 68 67 65 67 68 67 68 68 69 69 68 67 66 66 67 67 68 67 67 68 68 68 68 68 68 67 66 67 68 68 69 69 69 68
50 51 55 55 57 59 60 60 61 63 64 66 66 65 67 69 68 67 67 68 66 65 66 67 68 68 68 68 68 68 68 68 68 67 67 67 67 67 68 69 69 69 68
51 53 53 54 55 56 58 59 57 57 62 63 63 65 64 66 66 67 65 65 64 64 67 68 68 68 69 68 69 69 67 67 69 68 67 67 67 68 68 68 69 69 68
50 52 53 53 53 54 56 58 59 58 57 58 60 63 63 64 63 63 64 60 64 60 69 69 69 69 69 70 70 69 69 69 70 70 68 68 68 68 68 69 69 69 69
47 48 49 51 52 53 54 56 58 58 58 58 59 63 66 62 59 58 58 67 68 68 66 69 70 71 71 71 71 71 71 70 70 71 71 70 70 70 70 70 70 70 70
45 47 48 49 50 52 53 54 56 58 57 58 60 61 67 62 63 61 59 63 69 69 70 69 69 71 71 72 72 72 72 71 70 71 71 71 70 71 71 71 71 68 67
44 45 47 49 50 51 51 52 55 57 58 58 58 61 67 67 68 66 66 65 68 69 71 71 71 71 71 72 72 72 71 71 71 71 71 71 71 70 70 69 68 67 68
46 46 47 47 48 49 51 53 54 56 58 58 58 58 64 65 69 70 69 68 68 70 71 72 72 72 72 72 72 72 71 71 71 70 70 69 68 67 66 66 66 66 66
45 45 46 47 48 49 50 52 53 54 56 58 60 61 64 64 68 70 68 63 59 58 56 59 65 63 58 57 57 63 70 70 69 68 67 66 66 66 66 66 65 63 63
45 45 46 47 48 48 50 52 53 54 55 57 59 61 63 65 61 57 53 50 49 47 47 48 48 48 47 47 47 46 50 55 62 65 66 66 66 65 64 63 62 62 61
41 43 44 45 46 47 48 49 50 51 52 54 57 60 55 51 48 46 44 43 43 43 43 42 43 42 43 43 42 41 42 45 48 56 61 62 61 60 61 61 58 58 58
40 40 41 41 42 43 44 44 45 45 47 47 46 46 45 43 41 40 40 40 40 40 40 40 40 39 39 38 38 39 39 41 43 46 48 48 46 45 45 44 44 45 46

GFSGL_sfc_30mbdewp_072.txt.gz
Dewpoint
66 66 67 67 67 69 68 68 68 67 67 69 69 69 69 68 70 71 69 67 70 68 66 67 68 68 64 63 64 64 63 63 60 59 63 65 71 70 70 70 67 65 62
65 66 67 67 67 66 68 67 68 68 68 69 70 70 70 69 70 70 69 66 67 67 68 67 67 66 69 68 65 65 63 64 64 62 64 65 67 69 69 70 68 65 67
65 66 67 67 67 66 66 67 67 68 68 68 69 70 69 69 71 71 69 68 69 68 68 68 68 67 67 65 67 64 64 66 66 65 64 64 65 67 67 68 67 67 64
63 65 65 67 66 66 66 67 67 68 68 67 68 69 69 67 69 70 70 69 68 68 69 69 68 68 68 69 69 69 69 67 65 66 64 63 63 64 67 64 61 62 64
66 64 65 66 67 67 66 67 68 68 68 68 67 67 68 68 66 68 70 69 69 69 70 70 69 68 69 70 68 68 68 68 65 63 62 62 62 62 64 62 63 62 64
67 66 66 66 66 67 68 68 68 68 68 68 67 66 66 65 65 66 69 69 69 69 69 70 70 69 69 70 70 69 69 69 68 67 63 63 66 66 64 63 63 62 62
60 67 67 67 67 67 68 68 68 68 68 69 68 67 67 67 64 64 67 66 66 67 68 68 69 67 69 69 69 69 68 68 68 69 68 67 67 67 68 68 67 66 66
56 62 67 66 66 67 69 69 68 69 68 68 69 69 69 68 66 64 65 67 67 67 67 68 69 68 67 69 69 67 69 69 70 70 69 69 69 69 70 70 70 70 68
51 55 62 63 68 67 67 68 69 69 69 68 68 69 70 70 66 66 65 65 64 67 68 69 70 70 70 68 68 67 67 67 66 69 69 69 69 69 70 68 64 61 58
48 49 54 62 64 66 67 69 70 70 70 69 68 68 69 69 69 66 65 65 64 62 65 69 69 69 69 68 70 69 67 66 64 63 68 70 69 71 69 71 68 63 58
49 49 52 58 61 62 65 68 70 70 70 70 70 69 69 69 70 67 64 66 64 63 62 60 60 64 67 66 68 70 69 66 62 64 63 63 63 65 69 71 71 68 61
50 51 50 52 59 57 62 64 67 69 70 70 70 69 69 70 69 68 64 64 67 65 64 62 63 63 61 64 65 68 68 67 62 56 55 55 56 57 59 63 70 72 69
48 49 51 50 52 57 59 61 63 66 67 70 71 68 68 68 69 68 65 64 64 66 66 66 65 64 62 61 63 65 65 67 63 57 56 56 56 55 62 65 68 72 73
46 47 48 49 49 53 54 54 58 61 62 63 66 70 69 68 69 68 68 65 62 63 65 66 67 67 66 67 66 64 66 66 64 61 59 57 58 56 57 60 63 63 65
44 45 46 47 48 50 52 52 55 59 62 62 65 66 68 67 67 68 68 68 69 67 66 67 67 66 67 67 66 66 66 66 66 65 63 62 60 58 57 59 61 62 62
43 44 44 46 46 47 48 50 52 58 59 58 58 60 67 67 65 66 66 67 67 67 66 66 66 66 66 66 65 64 65 65 65 65 65 64 62 60 59 59 61 62 62
43 45 46 48 50 49 49 49 49 50 54 55 56 58 59 63 66 64 63 63 65 65 68 68 67 66 66 67 67 67 65 64 66 65 64 64 62 62 61 60 60 62 64
44 44 45 46 49 51 51 50 51 51 51 51 53 56 58 58 58 60 60 60 66 61 68 68 68 67 67 68 68 68 67 67 67 66 66 66 65 63 62 62 62 63 64
43 43 44 45 46 48 49 50 50 51 52 53 53 54 55 57 58 56 55 63 68 68 68 68 69 69 70 70 70 70 70 69 69 68 68 67 67 66 65 64 63 63 64
42 43 45 44 45 48 49 49 49 50 50 52 52 52 53 57 61 64 60 60 67 68 69 69 69 69 70 71 71 71 72 72 71 71 71 71 71 71 69 67 67 66 67
41 42 42 43 44 45 47 48 48 49 52 51 51 53 53 56 59 63 68 66 66 67 69 70 70 71 71 71 72 72 72 72 72 72 72 72 72 71 71 71 71 71 71
42 43 43 44 44 45 47 48 49 51 51 52 52 53 54 56 56 57 59 67 69 69 69 70 71 70 70 72 72 72 72 72 72 72 72 72 72 72 71 71 71 70 69
42 42 43 44 44 45 46 47 48 49 51 51 53 53 54 56 57 58 61 64 67 66 62 62 65 69 65 64 63 65 70 72 73 73 72 72 71 70 69 69 68 68 68
43 43 43 44 45 46 47 47 48 49 50 51 51 53 53 54 55 60 63 57 54 51 51 51 51 52 52 52 51 52 52 53 57 66 71 70 69 68 68 67 67 67 67
39 40 41 41 42 44 46 47 47 49 51 52 53 54 55 58 57 54 51 49 47 46 45 45 46 45 44 44 44 45 45 48 53 57 64 65 66 65 66 66 66 63 63
37 37 39 40 40 41 43 44 46 48 49 50 52 53 54 54 50 48 46 45 44 43 42 42 42 42 42 42 42 42 44 46 47 49 52 52 53 52 52 54 54 51 50

GFSGL_sfc_30mbdewp_075.txt.gz
Dewpoint
67 67 67 68 69 70 68 67 67 66 67 67 69 68 68 68 68 69 70 67 67 67 67 65 68 70 65 60 60 60 60 61 59 58 61 65 69 69 69 71 69 68 68
65 67 67 67 68 67 69 68 69 69 67 67 69 69 69 68 69 69 68 64 67 67 67 67 65 66 70 70 65 66 64 67 63 66 64 62 66 67 71 71 68 65 65
63 64 66 66 67 67 67 68 69 69 69 66 68 69 68 68 69 69 69 68 67 67 66 67 67 67 68 67 67 64 63 66 65 65 64 63 62 64 65 68 70 67 66
67 63 65 67 67 68 68 68 68 70 69 69 68 69 69 67 67 69 70 70 69 68 68 67 67 67 69 70 69 69 68 67 65 63 62 62 62 63 63 63 62 60 61
66 67 68 66 68 68 68 69 69 69 69 69 69 69 68 68 66 68 68 69 69 69 69 68 69 67 67 69 68 69 68 68 64 62 61 60 60 61 64 65 63 61 63
60 65 69 68 69 69 68 69 69 70 70 70 69 69 68 65 63 64 67 68 69 70 70 71 71 68 68 68 68 68 70 71 71 67 64 63 68 66 63 63 63 62 60
55 59 63 67 68 69 70 70 70 70 70 71 70 69 70 70 65 63 65 66 68 70 69 71 69 65 69 70 69 68 69 68 67 70 70 69 68 69 69 70 67 68 66
51 52 56 59 64 67 68 69 70 71 70 70 70 71 71 71 68 65 63 68 68 68 69 70 71 70 70 71 70 69 70 70 71 69 69 70 71 72 72 70 71 72 70
48 49 53 55 60 63 64 68 69 69 69 70 70 71 72 72 69 67 64 65 65 68 69 69 70 71 71 69 70 70 70 70 66 69 70 70 70 69 68 68 65 61 59
50 51 51 52 56 62 62 62 68 70 69 69 69 70 71 71 72 69 65 67 65 65 67 69 68 69 69 69 70 70 70 70 70 65 68 69 68 70 68 70 68 66 62
50 50 51 52 52 55 59 60 64 67 70 70 69 70 71 71 72 69 67 69 67 65 64 64 65 65 65 66 67 71 71 71 70 68 66 64 63 66 69 71 72 70 65
49 49 50 51 52 49 54 59 59 62 65 69 71 71 72 71 70 69 66 66 70 68 66 63 64 61 60 63 64 66 68 69 69 66 62 58 56 58 58 59 70 73 70
47 48 48 49 50 52 52 55 55 59 60 62 68 69 70 72 70 68 66 65 66 68 69 67 64 64 63 59 60 64 64 66 66 66 65 62 58 56 58 59 62 74 74
45 46 46 46 47 48 50 50 50 47 51 54 62 66 68 70 71 70 69 66 64 65 67 68 67 66 65 66 66 64 64 66 66 66 65 64 61 57 56 58 57 57 59
43 42 43 44 44 46 48 47 47 50 51 53 55 60 61 64 68 66 65 67 70 70 69 68 67 67 67 67 67 68 68 68 67 67 66 65 62 60 58 58 58 57 59
42 41 41 41 42 42 44 45 47 49 49 49 49 54 56 56 57 58 59 64 63 64 68 68 67 67 67 66 67 67 68 67 67 67 67 66 64 63 62 62 60 58 59
41 42 41 42 42 42 43 45 46 47 47 47 47 51 53 54 54 54 55 58 62 63 67 68 67 67 67 67 66 66 65 65 67 66 66 66 66 65 64 64 63 61 60
40 42 41 41 42 42 42 43 45 46 46 47 47 47 51 51 52 53 53 55 62 63 67 67 67 68 68 68 67 66 67 67 66 66 67 66 65 65 64 64 63 62 62
39 40 41 43 43 43 44 45 44 45 46 46 47 48 49 49 51 52 54 61 61 62 66 67 68 69 69 69 69 70 70 70 70 70 69 69 68 67 66 65 64 63 63
39 40 41 41 41 43 44 44 44 44 44 45 45 46 47 50 53 59 60 61 63 64 62 66 68 69 70 70 70 70 71 71 72 71 70 71 71 71 69 69 69 67 67
40 40 40 42 42 43 44 44 45 44 44 45 44 46 47 49 50 54 55 63 65 66 64 66 69 70 70 71 71 71 71 71 72 72 72 71 72 71 72 71 71 71 70
40 40 39 40 41 42 43 44 44 45 46 46 46 46 47 49 50 52 55 56 57 64 69 68 70 71 71 71 71 71 71 71 71 73 73 73 72 72 72 72 72 72 71
40 40 40 41 41 42 44 44 44 45 46 47 47 47 47 47 49 52 53 55 57 65 66 68 70 70 68 66 64 67 71 72 72 73 73 72 72 72 72 71 71 70 70
37 37 39 39 40 42 43 44 44 44 45 45 47 47 47 50 48 50 52 54 62 60 56 56 55 55 56 58 58 56 55 55 55 59 63 68 72 72 71 71 70 70 69
37 36 37 37 39 40 40 41 42 43 46 48 48 48 48 49 49 48 54 59 57 56 52 50 49 48 48 48 48 50 49 48 51 55 58 62 66 68 68 68 68 68 68
37 36 35 36 36 37 38 39 40 42 43 46 47 48 50 51 53 53 57 55 53 50 48 46 45 45 45 44 44 44 45 48 52 54 58 57 57 56 56 55 54 54 54

GFSGL_sfc_30mbdewp_078.txt.gz
Dewpoint
70 71 71 71 72 72 72 70 69 69 70 66 59 62 70 70 70 70 69 68 68 68 71 69 68 70 69 71 69 68 63 65 65 65 67 72 71 72 71 72 73 71 72
69 70 70 71 71 72 72 71 71 71 71 70 65 67 70 70 71 70 70 69 68 69 69 68 68 69 69 70 69 67 67 66 66 66 67 66 65 67 73 71 72 69 68
69 69 70 70 71 70 72 72 72 72 72 70 69 71 70 69 70 70 70 71 69 69 70 70 69 70 69 68 70 70 69 69 69 67 66 69 69 67 68 71 71 72 72
66 69 69 69 69 70 71 72 71 72 72 71 71 72 71 71 71 70 70 71 70 70 70 70 71 70 70 69 70 70 69 70 68 68 66 65 65 67 69 67 68 67 64
63 66 67 67 70 70 70 70 71 71 72 72 72 71 72 71 69 70 71 72 70 69 70 70 71 71 70 71 70 71 70 70 69 67 66 66 65 68 68 68 67 69 68
58 61 63 68 69 69 70 70 71 71 71 72 72 72 70 70 66 66 70 71 72 72 70 71 72 71 70 67 67 68 69 70 70 70 70 69 68 70 70 69 69 66 64
55 54 58 62 65 68 70 70 71 71 71 71 72 72 71 71 68 64 64 69 70 71 71 71 71 68 70 70 67 66 67 67 68 69 68 70 70 70 70 71 70 70 70
52 53 55 55 59 64 67 67 69 71 71 71 71 72 72 72 70 68 66 66 69 69 70 72 71 70 71 71 72 71 70 70 69 68 68 67 69 70 71 70 70 71 72
52 53 54 54 54 57 64 65 65 68 71 71 71 71 72 73 71 69 67 67 67 68 70 70 70 72 72 69 70 70 72 72 72 71 71 69 68 68 68 71 69 67 66
51 52 54 55 55 55 56 62 64 66 67 71 71 71 71 71 72 71 68 69 68 67 67 69 69 69 68 68 70 70 69 69 71 71 68 68 68 69 68 69 70 68 67
51 51 52 54 55 55 55 56 62 63 64 67 67 71 71 71 72 70 69 71 70 69 68 67 67 67 66 66 66 70 70 70 70 70 70 69 69 70 72 71 70 70 68
51 51 52 53 52 52 55 57 57 59 61 63 65 68 70 72 72 71 68 67 71 70 70 69 68 66 64 64 64 64 66 68 69 69 68 68 67 65 64 63 71 72 71
49 49 49 50 51 52 53 55 55 54 58 58 60 60 63 69 70 71 70 66 66 69 71 71 69 66 64 62 61 61 61 64 66 66 66 66 67 67 65 62 61 68 74
47 47 47 47 46 47 49 49 49 50 49 49 52 56 62 68 69 71 71 70 68 65 65 69 69 69 68 67 66 64 61 64 65 65 65 66 67 67 66 64 61 58 58
44 44 44 43 44 45 46 47 48 49 50 50 50 52 53 55 63 65 64 61 61 65 65 70 69 69 69 69 68 68 69 67 66 66 66 67 67 68 67 66 62 59 59
41 41 41 41 42 42 43 44 46 46 45 46 46 47 49 50 51 52 53 54 60 62 66 69 69 69 69 69 68 68 68 68 69 68 68 68 68 67 67 66 64 62 61
40 40 40 40 40 42 42 43 43 45 47 46 47 46 47 47 46 47 50 52 53 59 62 65 69 69 70 70 69 69 68 69 69 69 69 69 69 68 67 66 65 64 65
39 40 39 39 40 40 42 43 43 44 46 47 47 48 48 47 47 47 47 50 56 57 63 64 65 68 68 69 70 69 69 69 70 69 69 68 67 68 68 67 67 66 65
39 38 39 39 40 41 41 41 42 43 44 45 48 48 49 48 47 47 48 54 57 57 59 63 65 67 68 68 69 70 70 70 71 71 70 69 70 69 67 66 66 65 65
39 39 40 41 40 40 41 41 41 42 43 45 45 46 48 48 48 49 55 57 59 59 58 60 61 61 67 69 69 71 71 71 70 70 72 71 72 71 69 69 69 67 67
38 38 38 39 39 40 40 41 42 42 43 43 44 47 46 47 48 49 51 52 56 63 64 64 66 67 69 70 70 71 71 71 71 70 70 72 72 71 70 71 70 71 69
37 39 40 40 40 40 40 40 41 42 42 43 43 44 45 46 47 49 50 51 52 55 58 65 65 67 67 71 71 71 69 70 70 70 71 71 71 71 71 71 72 71 71
33 35 36 36 37 38 39 40 41 42 42 43 43 43 44 45 47 48 48 51 51 51 53 55 63 68 67 66 66 65 65 67 67 68 69 70 70 70 71 72 72 72 71
35 35 35 35 36 36 37 38 39 40 41 43 45 44 44 45 46 47 48 49 51 51 54 63 61 61 60 59 59 57 58 58 57 60 64 67 68 70 71 70 71 71 71
36 36 36 35 36 35 34 35 36 38 39 41 43 44 44 46 46 46 46 49 52 56 59 58 55 54 53 52 52 52 51 50 50 53 57 60 63 65 67 69 70 70 69
38 38 37 35 34 35 35 33 34 35 36 37 39 41 42 43 46 48 47 47 52 56 55 53 51 49 49 47 47 46 45 46 48 50 53 59 61 62 62 62 61 60 59

GFSGL_sfc_30mbdewp_081.txt.gz
Dewpoint
70 70 71 71 71 71 70 70 70 69 68 66 65 62 67 70 70 70 69 69 68 68 68 70 68 70 68 69 68 68 67 67 64 66 68 69 67 67 69 71 71 71 71
68 70 70 71 72 71 71 69 71 69 69 67 65 65 65 69 70 70 69 68 68 68 68 69 67 69 69 71 69 68 68 68 67 63 66 65 66 67 68 72 71 71 71
66 67 70 70 71 70 71 71 72 70 68 66 64 64 67 69 69 70 69 71 69 68 68 69 68 68 68 69 67 67 68 69 69 68 67 69 69 66 65 68 70 71 69
65 64 67 67 68 70 71 72 72 72 71 70 71 70 71 70 70 71 70 69 70 70 69 70 70 68 67 68 67 67 69 68 68 68 67 66 66 67 69 70 68 68 67
62 63 64 67 66 66 68 71 71 72 72 72 71 72 72 70 71 71 71 69 69 69 70 70 70 71 71 70 69 68 69 69 69 69 69 69 69 68 69 70 67 68 67
58 59 62 64 66 68 67 70 70 70 71 72 71 71 71 72 69 69 70 71 71 70 68 69 70 69 70 70 70 70 70 70 69 68 68 69 69 70 70 68 69 66 65
53 56 57 59 60 64 67 67 67 70 70 70 71 72 71 71 70 68 67 70 71 71 69 69 69 70 70 70 69 67 68 68 68 68 67 67 67 67 67 66 66 67 68
55 55 55 56 55 56 64 65 64 67 69 71 70 71 71 72 71 70 68 66 67 70 72 72 71 69 69 69 70 70 68 67 67 67 68 67 67 65 66 66 67 69 70
53 54 56 57 56 56 54 56 62 65 65 68 71 71 71 70 71 70 69 68 67 67 68 70 71 71 70 69 69 70 71 71 71 69 68 67 66 66 66 69 68 69 67
52 53 54 54 54 53 57 57 56 60 64 63 67 68 71 71 71 70 69 69 69 69 68 68 68 70 70 70 70 70 69 69 71 72 70 69 68 68 67 67 67 66 66
50 50 52 53 53 52 53 54 57 57 58 62 63 66 67 71 71 71 69 69 70 70 69 68 68 67 66 66 66 68 67 68 70 70 69 70 70 70 69 68 68 68 67
48 49 50 50 50 49 51 52 54 56 56 55 60 61 64 67 69 70 70 67 69 70 70 70 70 68 66 65 63 64 65 65 67 67 68 68 68 69 69 69 70 70 69
47 47 47 47 48 48 47 47 48 49 51 52 50 51 56 61 64 70 68 67 64 64 67 70 69 67 67 65 63 62 62 63 64 64 65 65 66 67 68 67 66 65 70
43 44 44 44 44 45 44 46 47 48 48 50 51 51 54 52 58 65 65 67 64 62 64 66 67 67 67 68 67 66 64 63 63 64 64 64 65 66 66 67 67 66 64
42 41 41 41 41 41 42 43 44 44 45 45 44 45 45 47 49 56 58 55 56 58 58 61 66 69 69 68 69 69 69 66 65 64 64 64 64 65 65 66 66 66 64
40 40 40 40 40 40 40 41 43 43 43 43 43 44 45 46 47 48 48 48 48 52 57 60 63 67 69 69 69 69 69 68 67 67 66 66 65 66 66 67 67 66 65
40 39 39 39 40 40 40 41 41 42 43 44 44 44 45 46 45 45 45 45 46 54 57 57 59 61 65 70 70 70 70 70 69 68 68 67 67 67 67 67 67 67 66
39 39 39 38 39 39 39 40 40 40 40 41 42 43 43 43 44 46 45 45 47 50 53 56 58 61 62 65 67 69 70 70 70 70 70 69 69 69 68 68 67 67 66
39 39 39 39 40 41 41 40 40 40 40 40 41 42 44 46 45 45 46 47 49 50 54 58 59 61 62 63 66 68 70 70 70 69 70 70 70 70 69 69 68 67 67
38 38 39 39 38 39 39 38 38 39 40 40 40 40 43 44 45 45 47 49 52 53 55 57 58 59 61 63 67 68 69 69 70 70 70 69 70 70 70 69 68 67 67
37 37 37 39 40 40 40 40 40 39 39 40 41 41 42 42 42 42 44 46 48 51 54 55 61 64 65 66 67 69 69 70 70 70 70 70 70 69 69 68 69 68 68
35 34 35 35 36 36 36 36 36 37 38 39 40 41 41 41 41 42 43 46 48 49 50 53 52 54 60 65 66 68 69 69 69 69 69 69 70 69 69 69 68 68 68
35 35 35 35 35 35 35 35 35 36 36 37 39 40 40 42 43 42 43 44 45 46 48 49 53 55 60 65 65 66 67 66 65 63 63 65 68 68 68 68 67 67 67
36 36 36 36 36 35 35 35 35 35 34 35 36 37 38 41 41 42 44 45 45 48 50 51 53 58 58 58 57 57 56 57 57 57 59 61 63 66 65 65 65 65 65
36 37 38 37 36 36 34 34 33 34 34 34 33 33 34 36 39 40 42 46 47 48 48 51 55 54 53 52 51 51 51 49 48 50 53 57 59 62 65 67 68 68 68
38 39 39 38 37 36 34 33 32 32 33 33 32 33 34 35 36 38 40 42 42 44 48 49 50 52 51 50 49 48 46 46 46 46 47 52 55 58 60 62 64 65 66

GFSGL_sfc_30mbdewp_084.txt.gz
Dewpoint
69 69 70 70 70 69 69 69 70 69 69 69 68 67 68 69 71 70 69 69 68 67 67 69 68 69 68 69 68 67 67 67 63 64 68 67 66 66 67 68 69 71 71
67 68 69 70 70 70 70 70 70 69 68 68 66 65 64 67 69 70 69 69 68 67 67 68 68 68 68 70 69 67 68 69 67 66 66 67 67 67 67 67 68 70 71
65 66 67 67 69 68 69 70 70 69 69 68 67 64 63 66 68 70 70 69 68 68 68 67 68 68 66 67 67 67 67 69 69 68 67 68 68 66 67 69 69 69 68
65 65 66 66 66 66 68 70 71 70 69 68 66 65 65 65 67 69 70 69 70 70 69 69 69 69 68 66 67 67 67 67 68 68 67 67 67 68 70 69 66 68 67
65 65 65 67 67 68 66 64 64 69 71 69 68 67 66 68 69 69 70 70 69 68 69 70 70 70 70 69 68 68 67 67 67 67 68 68 68 68 68 69 68 67 66
60 61 62 63 64 65 67 66 66 67 70 71 71 70 71 72 71 70 70 70 69 68 68 68 69 69 69 69 70 70 69 67 67 68 67 67 67 68 69 69 67 65 61
56 58 59 59 59 60 63 66 64 64 68 70 70 70 70 71 71 70 69 69 70 70 70 69 69 69 69 69 69 69 69 69 69 68 67 67 66 67 67 65 64 64 64
56 57 57 57 57 58 56 57 60 65 64 66 68 71 71 71 71 70 69 68 68 69 71 71 69 69 69 69 68 68 69 68 67 67 68 67 67 67 66 64 63 65 68
52 54 55 55 54 54 57 58 58 59 59 61 64 66 67 70 71 69 68 69 68 67 67 69 71 71 71 69 68 68 69 70 71 68 67 67 67 67 66 66 66 67 66
49 50 51 51 51 51 51 52 55 57 59 60 59 63 63 64 67 68 69 69 69 69 69 69 68 69 70 69 69 68 68 68 69 70 71 68 67 67 65 66 67 66 66
48 48 48 49 49 49 49 50 51 52 55 56 58 60 62 63 64 66 68 68 69 70 69 69 69 68 66 66 67 69 69 69 68 68 69 70 70 70 70 68 68 68 67
46 45 45 46 46 47 47 47 48 48 49 51 52 53 56 59 63 65 66 66 67 68 70 71 71 69 65 64 63 64 65 65 66 66 66 67 68 69 70 70 69 68 69
42 42 42 44 42 42 43 44 44 44 44 45 45 45 46 49 53 62 64 63 64 63 65 63 63 64 65 65 67 66 63 63 63 64 64 65 66 66 67 68 69 70 70
41 41 41 41 41 41 41 42 43 43 43 42 42 42 43 44 46 51 51 54 61 59 60 61 61 61 62 64 67 67 65 64 65 66 66 66 65 65 65 66 66 67 66
40 40 40 40 39 40 40 41 41 42 43 42 43 43 44 44 45 45 44 45 47 52 50 53 55 57 59 62 67 68 68 68 66 66 66 66 66 65 64 65 65 66 65
39 39 39 39 39 40 40 39 41 41 41 41 41 42 42 43 43 42 42 42 43 44 48 51 52 56 58 59 61 65 69 69 69 68 68 67 66 66 65 65 65 65 65
39 39 39 39 39 39 39 39 39 40 41 41 41 41 42 42 42 42 43 43 44 47 49 50 53 54 54 56 60 63 67 69 70 69 69 68 67 66 66 65 65 66 66
39 39 39 38 39 39 39 39 40 40 39 38 40 41 41 40 41 42 43 46 47 47 48 49 50 52 54 56 58 60 61 65 68 70 70 69 69 68 68 68 67 67 67
37 38 38 39 39 40 39 39 39 39 38 38 38 39 40 41 41 42 43 43 46 47 49 51 52 54 55 57 59 61 63 64 65 67 69 70 70 70 69 69 69 68 68
37 37 37 37 38 38 39 39 39 39 38 39 39 39 40 40 40 40 41 41 43 43 45 47 50 55 58 59 60 62 64 65 67 68 69 69 70 70 69 68 68 66 65
36 35 35 34 35 35 36 36 35 35 34 35 36 36 37 38 38 40 41 41 41 43 44 47 49 50 52 55 60 62 65 65 67 68 69 69 70 69 69 69 68 68 68
36 34 35 35 35 35 35 35 35 35 34 34 33 34 34 36 38 38 40 42 42 42 43 45 46 46 47 49 53 57 58 59 63 67 67 66 67 68 68 68 68 68 67
36 35 35 35 35 36 34 34 34 33 33 33 33 32 33 34 34 35 37 39 41 43 44 45 45 46 48 52 57 59 58 58 58 59 60 61 62 64 66 67 66 64 63
37 36 36 36 36 36 36 34 34 33 33 32 32 32 32 33 33 32 33 35 37 39 41 45 45 46 47 49 52 55 54 53 52 53 53 54 57 59 61 63 64 64 63
37 36 36 37 37 37 36 36 34 33 33 32 32 33 32 31 33 33 33 34 35 36 38 41 42 45 47 48 51 52 51 50 48 49 49 51 52 55 57 60 63 65 65
37 37 37 38 38 37 36 36 34 33 32 32 32 32 32 32 32 32 32 33 34 35 36 38 39 41 43 44 50 51 49 47 46 45 46 47 49 52 54 56 58 60 62